GEFSGL_500_meanwind_180.txt.gz
Wind_Speed
10 11 11 11 11 12 12 11 12 12 11 12 12 13 13 12 13 14 14 14 15 15 16 18 18 18 19 19 20 21 23 23 24 24 25 25 26 25 25 25 26 26 26
11 11 13 13 13 14 14 13 13 13 12 13 13 13 13 13 13 15 15 16 16 16 17 18 19 19 20 21 21 21 22 23 23 24 25 26 26 26 26 26 26 27 27
13 13 14 15 15 15 16 16 16 16 14 13 14 14 13 14 15 16 16 17 17 17 18 18 19 20 20 21 22 22 23 24 24 24 24 25 26 27 27 27 27 27 27
14 14 15 16 17 17 18 18 18 17 16 15 15 15 15 15 17 17 17 18 18 18 19 20 20 21 21 22 22 23 24 24 24 24 23 25 26 26 26 27 27 27 28
16 16 17 18 19 19 20 20 20 20 18 16 16 16 17 17 18 19 19 19 20 20 21 22 22 22 21 22 22 23 24 24 24 25 25 25 26 26 26 27 27 26 27
19 18 18 19 21 21 22 22 21 20 19 18 18 18 18 19 20 21 22 22 22 23 24 24 24 23 23 23 23 23 24 24 25 25 26 26 27 27 27 27 27 27 28
22 21 20 21 22 23 23 22 22 21 21 20 20 20 20 21 22 23 24 24 24 25 25 25 25 25 25 25 25 25 25 25 25 25 26 26 27 27 27 27 28 28 28
25 25 24 24 25 25 25 24 24 24 23 23 23 22 23 23 24 25 25 26 26 26 27 27 27 27 27 27 26 26 27 27 27 26 26 26 27 27 27 28 28 28 28
28 28 28 28 27 27 26 26 26 27 26 25 25 25 25 25 26 27 27 27 27 27 28 28 28 28 28 27 26 27 27 27 27 27 27 27 27 28 28 28 29 29 29
30 30 31 30 29 28 28 28 29 29 28 27 27 27 27 28 28 29 29 28 28 29 29 30 29 29 29 28 27 27 28 28 28 28 28 28 28 28 29 29 29 29 29
34 35 33 32 31 30 30 29 30 30 30 30 29 29 30 30 31 31 30 30 30 30 30 31 31 30 30 30 29 29 29 29 29 29 29 29 30 30 30 30 30 31 31
38 37 34 34 34 33 31 31 32 32 31 31 32 31 31 32 32 32 31 31 32 32 32 31 31 31 31 31 30 30 31 31 30 30 30 30 30 31 31 32 32 32 32
40 39 39 37 35 34 33 33 33 34 33 34 34 33 33 34 34 33 33 33 33 33 33 33 33 33 33 32 32 32 32 32 32 32 31 31 31 32 32 32 33 33 33
41 41 40 38 36 36 35 34 35 35 35 36 35 34 35 34 34 34 33 33 34 34 34 34 34 34 34 34 34 34 34 34 34 33 33 33 32 32 33 33 34 35 35
41 40 39 39 36 35 36 37 35 35 35 36 35 34 35 35 35 35 35 35 35 35 35 36 36 35 36 36 36 36 35 35 35 34 34 34 34 34 35 35 36 36 36
41 40 38 37 36 36 37 37 37 35 35 35 35 35 36 36 36 36 36 37 37 36 36 37 37 37 37 37 37 37 37 37 36 36 36 36 36 36 36 36 37 37 37
42 40 39 39 38 38 38 37 37 36 34 35 35 36 36 36 36 36 36 37 37 36 37 37 38 38 37 37 37 38 38 38 38 38 38 38 37 38 38 38 38 38 38
42 40 41 40 40 39 38 37 37 37 36 36 37 37 37 37 36 36 37 37 37 37 37 38 38 38 38 38 38 38 38 38 38 39 39 39 39 39 39 39 39 39 39
41 40 41 41 41 40 39 39 38 38 37 37 37 37 37 38 38 38 39 39 39 39 39 39 39 39 38 38 38 38 37 37 38 38 39 38 38 39 39 40 40 40 41
41 40 40 40 40 39 39 38 37 37 37 37 37 37 38 38 39 39 40 40 40 40 40 39 39 38 38 38 38 37 37 37 38 39 39 39 39 39 40 40 40 41 41
40 40 40 39 39 39 39 40 39 39 38 37 37 37 38 39 40 40 40 40 40 40 39 39 38 38 38 37 37 36 37 38 39 39 39 39 39 39 39 39 40 40 40
36 36 37 38 39 40 40 40 39 38 37 37 37 38 38 39 40 41 40 39 38 38 38 38 38 37 36 36 36 37 37 37 38 38 38 39 39 39 39 39 38 38 38
36 36 37 37 38 38 37 37 37 37 37 37 36 37 37 37 37 37 36 36 36 36 36 36 36 36 35 36 36 37 37 37 37 37 37 38 38 38 38 37 37 38 38
35 35 36 36 36 36 36 36 36 35 35 35 35 35 36 35 35 35 35 34 35 35 35 35 35 35 35 36 36 36 36 36 36 36 37 37 37 37 37 37 37 38 38
33 34 34 34 34 34 34 34 34 33 34 35 35 35 34 34 34 34 33 33 34 34 34 34 34 35 35 35 36 36 36 36 36 36 36 37 37 37 37 37 37 37 37
32 32 32 32 32 32 32 33 33 33 33 33 32 33 33 33 33 33 33 33 33 33 32 32 33 34 34 35 35 36 36 36 36 36 36 36 37 37 37 37 37 37 37

GEFSGL_500_meanwind_186.txt.gz
Wind_Speed
11 11 11 10 10 11 12 13 13 13 13 13 13 13 12 11 12 12 12 13 14 14 14 15 16 17 18 18 18 19 20 20 20 21 22 23 23 23 23 24 25 26 26
12 12 12 12 12 13 14 14 14 14 14 14 14 14 13 13 14 14 14 15 15 15 16 17 17 17 18 19 19 20 20 20 21 21 22 23 23 23 23 24 25 26 26
14 14 14 14 14 15 15 15 15 15 15 15 15 15 15 14 14 14 14 15 15 16 16 17 17 18 19 19 20 20 20 21 21 21 22 22 23 24 24 25 25 25 26
16 16 15 16 16 17 17 17 16 16 16 16 17 17 17 16 15 15 15 15 16 17 17 18 18 18 19 19 20 20 20 21 22 22 21 22 23 24 25 26 26 27 26
19 18 18 18 18 18 18 18 18 17 18 18 18 18 18 17 17 17 17 17 18 18 19 19 20 20 20 20 21 21 21 22 22 22 23 23 24 25 26 26 27 27 27
22 21 21 20 21 21 20 20 20 20 20 20 20 20 19 19 19 19 19 20 20 21 21 22 21 21 22 22 22 22 22 23 23 23 24 25 25 26 26 27 27 27 27
25 24 23 23 23 23 23 24 23 22 23 23 22 22 22 22 21 21 21 22 22 22 23 23 22 22 23 23 24 24 24 24 24 25 25 26 26 26 27 27 27 28 28
28 27 27 26 26 26 27 26 26 26 25 24 24 24 24 24 24 24 24 24 24 24 24 25 25 24 24 25 25 25 25 25 25 26 26 26 27 27 27 28 28 28 28
30 30 30 30 29 29 29 29 28 27 26 26 26 26 26 26 27 26 26 26 26 27 27 28 27 27 27 27 27 26 27 27 27 26 27 27 28 28 29 29 29 29 29
32 33 33 33 32 31 30 30 29 29 29 29 28 28 28 28 28 28 27 28 28 28 29 29 29 29 29 29 28 28 28 28 28 28 28 29 29 29 30 30 31 31 31
36 36 36 36 35 34 33 33 32 32 31 31 30 30 29 29 29 29 29 29 30 31 31 31 31 31 30 29 29 29 29 29 30 30 30 30 31 31 32 32 32 32 32
39 39 39 38 38 37 36 35 35 34 34 33 32 31 31 30 29 29 30 31 32 33 33 33 33 32 30 30 30 30 30 30 31 32 32 32 32 33 33 33 33 33 33
42 42 42 41 41 40 39 38 37 35 34 34 33 32 32 31 30 30 31 33 34 35 35 35 34 32 31 31 31 32 32 33 33 33 34 34 34 35 35 34 34 34 34
43 43 43 43 42 41 41 40 39 37 35 34 34 34 34 32 32 32 33 33 34 35 36 35 34 33 33 33 33 33 34 34 34 34 35 35 35 35 35 35 35 35 35
44 45 46 43 41 41 40 40 39 37 36 36 36 35 35 34 34 35 36 35 35 35 36 36 35 35 35 35 35 35 35 35 35 35 35 36 36 36 37 37 37 37 36
45 46 46 45 44 43 44 42 39 37 37 38 38 38 36 35 36 36 37 37 37 37 36 35 35 35 35 36 36 36 36 37 38 38 38 38 38 38 38 38 38 38 38
45 45 45 45 43 42 43 42 40 39 39 38 37 37 37 37 37 37 38 39 38 38 37 36 35 35 36 36 36 36 37 37 38 38 39 39 38 38 38 38 38 39 38
44 44 45 43 44 44 44 44 44 41 38 38 37 38 39 38 38 38 39 38 37 36 36 36 36 36 37 37 37 37 38 38 38 38 38 38 38 38 39 39 39 39 39
44 44 44 43 43 43 43 42 40 38 38 38 38 39 39 39 39 38 37 37 36 36 36 36 37 38 38 38 38 38 38 38 38 38 38 38 38 38 38 39 38 38 37
42 42 41 41 41 40 39 38 38 36 36 37 38 38 39 38 37 36 36 36 37 37 38 38 38 38 38 38 39 39 38 38 38 38 38 38 38 38 39 39 39 38 38
40 40 40 40 40 39 37 37 36 36 37 38 37 37 37 36 35 35 36 36 37 37 37 37 37 37 37 38 38 38 37 37 37 38 38 38 38 38 39 39 39 38 37
39 39 39 38 38 36 36 35 35 36 36 36 35 34 33 34 35 35 35 36 36 37 37 36 36 37 37 37 37 37 37 37 37 38 38 39 39 39 39 39 38 37 36
35 35 35 36 35 36 36 35 34 33 33 33 32 31 32 33 34 35 36 36 36 36 36 36 36 36 36 37 37 37 37 37 38 38 38 39 39 39 38 38 37 36 36
32 33 34 34 33 33 34 33 32 31 31 31 31 31 32 32 33 34 35 36 35 35 35 35 35 35 36 36 36 37 37 37 37 38 38 38 38 38 38 37 37 36 36
31 32 32 32 32 32 33 32 31 31 30 30 30 31 32 33 33 33 34 34 34 35 35 34 35 35 35 35 35 36 35 36 36 37 37 37 37 37 37 37 37 37 37
28 29 30 30 31 31 31 30 30 30 29 29 30 31 32 32 32 32 32 33 33 34 34 34 34 34 34 34 34 34 34 35 36 36 36 36 36 36 36 35 36 36 37

GEFSGL_500_meanwind_192.txt.gz
Wind_Speed
13 13 13 13 13 13 14 14 14 15 15 14 14 13 13 14 14 14 14 14 14 14 14 15 16 16 16 16 16 17 18 18 18 18 19 19 20 21 21 21 21 21 22
15 15 15 15 15 15 15 16 16 16 16 16 16 16 16 16 16 16 16 15 15 15 16 16 16 17 18 18 18 19 19 19 19 19 19 20 20 21 21 21 22 22 22
17 17 17 17 17 17 17 18 18 18 18 18 18 17 17 17 17 18 17 17 17 18 18 18 18 18 19 20 20 20 21 21 21 20 21 21 21 21 22 22 22 22 23
20 19 20 20 20 20 20 20 20 20 20 20 20 20 20 19 19 19 19 19 19 20 20 20 20 20 20 20 21 22 22 22 22 22 22 22 22 22 22 22 22 23 23
23 22 22 23 23 23 22 22 22 22 22 23 23 22 21 20 21 21 21 21 21 21 22 21 21 22 22 22 22 23 23 23 23 23 23 23 23 23 23 23 23 24 24
27 26 25 25 25 25 25 25 24 24 25 24 24 23 23 23 23 23 23 23 24 24 24 23 23 23 23 23 23 24 24 24 24 24 25 25 25 25 25 25 25 25 25
29 29 28 28 27 28 27 27 27 26 26 26 25 26 26 26 25 25 25 25 25 25 25 25 25 25 26 26 25 26 26 26 26 26 26 26 26 26 26 26 27 27 27
32 32 31 30 30 30 29 29 29 29 28 27 27 28 27 28 28 27 27 27 27 28 28 28 27 28 28 28 27 27 28 28 28 28 28 28 28 28 27 27 28 28 28
35 34 34 33 33 32 32 31 31 31 30 29 29 29 29 30 30 30 29 30 30 30 31 30 30 30 30 30 30 30 30 30 30 30 29 29 29 29 29 29 29 29 30
37 37 37 37 36 36 35 34 34 34 33 32 31 31 32 32 32 32 32 32 31 32 32 31 32 32 32 32 32 32 32 32 31 31 30 30 30 30 30 31 31 31 31
40 41 40 40 39 39 38 37 38 37 36 35 34 33 34 34 34 34 33 33 33 32 32 32 32 33 34 34 33 32 32 32 32 31 31 31 31 31 32 32 33 33 33
43 43 43 42 42 41 41 40 39 38 38 37 37 36 35 35 35 35 34 33 33 33 33 33 34 35 35 34 34 33 33 34 33 33 32 32 33 33 34 34 34 34 34
45 45 44 44 43 43 42 41 41 40 39 38 38 37 36 35 34 34 34 34 33 34 34 34 35 36 36 35 34 35 35 35 35 34 34 34 35 35 36 36 36 35 35
46 45 45 45 44 44 44 43 42 41 40 39 39 38 37 36 37 36 36 36 35 36 36 37 37 37 37 36 35 35 35 35 35 35 35 36 36 36 36 36 36 36 36
46 45 44 44 44 44 44 43 43 42 42 41 42 41 39 37 37 37 37 38 38 38 39 39 38 38 37 37 37 37 37 37 37 36 36 36 36 37 37 37 37 37 37
45 45 44 43 44 44 45 43 42 42 42 42 42 42 41 40 39 40 40 40 40 40 40 40 39 39 39 38 38 38 38 38 38 38 38 38 37 38 38 38 38 37 37
47 46 45 45 45 45 45 45 45 44 44 44 43 42 42 42 42 42 41 41 41 41 40 40 40 40 40 40 39 39 38 38 37 37 37 38 37 37 38 38 38 38 38
47 47 47 46 45 45 46 46 46 46 45 44 44 43 42 42 42 43 42 41 41 41 41 41 40 40 40 40 39 39 38 38 37 37 37 37 37 37 37 38 38 38 38
46 46 46 45 44 45 45 45 45 44 43 43 43 43 42 42 42 42 42 41 41 41 40 40 40 40 40 40 39 39 38 37 37 37 37 37 37 37 38 38 38 37 37
44 44 45 44 44 43 43 43 43 42 42 42 41 41 41 41 41 40 40 40 39 40 41 41 41 40 39 39 38 37 37 37 36 37 37 38 38 38 38 38 38 37 37
39 39 40 41 41 41 40 40 40 40 39 39 38 38 38 38 38 37 38 38 39 40 40 40 40 39 37 37 37 36 37 37 37 38 39 39 39 38 38 38 38 38 38
36 38 39 39 39 39 39 38 37 36 36 36 35 35 36 36 36 36 36 37 38 38 38 37 37 36 35 35 35 35 37 37 38 39 40 40 39 38 38 38 39 39 39
35 36 37 37 37 36 36 36 35 35 35 35 35 35 35 34 34 34 34 35 35 35 35 35 35 35 35 35 35 36 37 38 38 38 39 39 38 37 37 38 38 37 38
33 32 32 32 32 32 33 33 34 34 34 33 33 33 33 33 33 33 34 35 34 33 34 34 34 34 34 34 35 36 36 36 37 38 38 38 37 36 37 36 36 36 37
29 29 29 30 29 29 29 30 30 31 31 30 31 31 31 32 32 32 33 32 32 31 31 32 32 33 34 35 35 36 36 37 37 37 37 36 36 35 35 35 35 35 36
26 27 27 27 27 27 27 27 27 28 28 29 30 30 30 30 30 30 30 30 29 30 30 30 31 32 33 34 34 35 35 35 36 36 35 34 34 34 34 34 35 35 36

GEFSGL_500_meanwind_198.txt.gz
Wind_Speed
12 12 12 12 11 11 10 10 11 11 11 11 11 11 12 12 12 12 12 12 12 12 12 12 13 13 14 14 14 15 15 16 16 17 17 17 18 18 18 18 19 19 19
15 15 14 14 14 13 12 12 13 13 13 13 12 13 13 13 13 14 14 14 14 14 14 14 14 15 16 16 16 16 16 17 17 18 18 18 18 19 19 20 20 19 19
18 17 16 16 16 15 14 14 15 15 15 14 14 14 14 15 15 15 15 15 15 15 15 15 15 16 17 17 17 18 18 18 19 19 19 20 20 20 21 21 21 21 20
20 20 19 19 18 18 17 17 17 17 17 17 16 16 17 17 18 17 16 17 17 17 17 17 18 19 19 19 19 19 20 20 20 20 20 21 21 21 21 22 22 22 22
22 21 21 20 20 20 20 20 20 20 20 20 20 20 20 19 19 19 19 19 19 19 20 20 21 22 22 21 21 21 21 21 22 22 22 22 23 22 22 23 23 23 23
24 24 24 23 23 23 24 24 24 23 23 23 22 22 22 22 22 22 22 22 22 22 22 23 23 23 23 23 23 23 22 22 23 23 24 24 23 23 23 23 23 23 24
28 27 27 27 27 27 27 27 26 27 26 25 25 25 25 25 24 24 24 25 24 24 25 25 25 26 25 25 26 25 24 24 24 24 24 25 25 24 24 24 24 24 24
31 30 29 29 30 30 29 29 29 29 29 28 28 28 27 27 27 27 27 26 26 26 26 27 27 28 28 29 28 27 26 25 25 25 25 25 26 26 26 25 25 26 26
34 34 33 32 33 33 33 33 33 33 32 31 31 31 30 29 29 29 29 28 28 28 28 28 29 29 29 29 28 27 27 26 26 27 26 26 27 27 26 26 27 27 28
36 36 36 36 36 36 35 36 36 36 36 36 35 34 34 32 31 30 30 29 29 29 30 30 30 30 29 28 27 27 27 27 27 28 28 28 28 28 28 28 28 29 29
39 39 40 39 39 40 39 39 39 39 39 38 37 36 35 33 31 31 30 30 30 31 31 31 31 30 30 28 28 28 27 28 28 29 29 29 29 29 29 30 30 30 31
41 41 41 42 42 43 43 42 41 41 40 40 39 37 35 34 33 33 33 33 32 32 32 32 33 32 30 29 29 29 29 29 30 30 30 30 31 31 31 32 32 32 32
42 42 43 43 43 44 44 44 44 44 43 42 41 38 37 36 36 36 36 36 36 35 33 33 33 33 32 31 31 31 31 31 31 30 30 31 32 32 33 33 34 33 33
43 44 44 44 45 45 46 46 46 46 45 43 42 40 38 38 38 38 38 37 37 37 35 35 35 34 33 33 33 33 33 33 32 31 31 32 32 32 33 33 33 33 33
42 43 44 45 46 46 47 47 46 45 43 43 42 41 40 40 39 39 39 39 38 38 37 37 37 36 34 34 34 34 34 34 34 34 34 34 33 33 34 34 34 34 34
43 44 45 45 46 46 46 46 44 43 42 43 43 42 42 41 41 39 39 37 37 38 38 38 37 35 35 35 35 35 35 35 35 34 35 35 35 35 35 35 35 35 34
44 44 44 44 44 44 43 43 43 43 43 43 42 41 41 40 40 40 39 39 38 38 38 37 37 36 35 35 36 36 36 36 36 36 36 36 36 36 35 36 35 35 36
44 44 44 43 43 43 43 43 43 42 42 42 42 42 41 40 40 40 41 40 40 40 39 37 37 36 35 36 36 37 36 36 36 37 37 37 36 37 37 36 36 36 36
43 43 43 43 43 43 43 43 42 41 41 42 42 42 41 40 40 40 41 40 39 39 39 38 38 37 36 36 35 35 35 35 36 36 36 37 37 37 37 37 37 37 36
41 41 42 42 42 42 42 42 42 41 41 41 41 40 40 40 39 39 38 38 38 38 37 37 36 35 35 34 34 35 35 36 36 36 37 37 37 37 37 37 37 37 37
40 40 39 39 39 40 39 40 39 39 39 39 39 39 38 37 36 36 36 37 36 36 36 35 34 34 34 34 34 34 34 34 35 36 36 36 36 36 36 36 37 38 37
37 37 36 37 37 37 37 37 37 37 37 36 36 36 35 36 35 34 34 34 34 34 34 34 33 33 33 33 33 33 33 34 34 35 35 35 36 36 36 37 38 38 37
34 34 34 34 34 33 34 35 35 35 35 34 34 35 34 35 35 34 34 33 33 34 33 33 33 33 33 32 33 33 33 33 34 34 34 34 34 35 35 35 36 36 36
30 29 29 29 30 30 31 32 32 32 32 31 32 32 32 33 33 33 33 33 32 31 31 31 31 31 31 31 32 32 32 32 33 33 34 33 33 33 33 33 33 34 34
27 26 26 26 27 28 28 29 30 30 30 29 29 29 29 30 30 31 31 31 31 30 30 29 29 29 30 31 31 32 32 32 32 33 33 33 32 32 32 32 32 33 33
24 24 24 25 26 27 27 27 27 27 27 27 27 28 27 28 28 29 30 30 30 29 28 28 28 28 29 30 31 31 30 30 31 31 31 31 32 32 31 31 31 32 32

GEFSGL_500_meanwind_204.txt.gz
Wind_Speed
17 16 15 14 13 12 12 12 12 12 12 11 11 12 12 12 12 12 12 13 13 14 13 13 13 14 15 15 16 16 16 16 17 18 18 19 20 20 20 20 20 20 20
19 19 18 18 16 15 15 15 15 15 14 14 13 14 14 15 15 15 15 15 15 16 16 16 16 17 17 17 17 18 18 18 18 18 19 20 21 21 21 21 22 22 22
20 20 20 19 19 18 19 18 18 17 17 17 16 16 16 17 17 17 17 18 18 18 18 18 18 19 19 19 20 20 20 21 21 21 21 21 22 23 23 23 23 23 23
23 23 23 22 21 21 21 21 21 20 20 20 20 19 19 19 20 20 20 21 21 21 21 21 21 21 21 21 22 23 23 23 24 24 24 24 24 24 24 24 24 24 23
25 25 25 24 24 23 23 22 23 22 22 22 22 22 22 22 23 23 24 24 24 23 24 23 23 24 24 24 24 24 25 25 26 26 26 26 26 26 25 25 24 24 24
28 27 27 27 27 26 25 24 24 24 25 25 25 25 26 26 26 26 27 27 27 27 27 26 26 26 26 25 26 26 26 26 27 27 28 27 27 27 26 26 25 25 25
29 29 28 28 29 29 28 28 27 27 27 28 28 29 28 28 28 28 29 29 30 30 30 29 28 28 28 28 27 27 27 28 28 28 28 28 28 27 26 25 25 26 26
31 30 30 31 30 30 30 30 30 30 30 31 31 31 30 30 30 31 31 31 31 30 30 30 29 29 29 29 28 28 28 29 30 29 29 29 28 27 26 26 27 27 27
33 32 32 32 32 32 32 32 33 33 33 34 33 33 33 33 33 32 32 32 32 31 32 31 30 30 31 30 30 30 30 30 30 30 30 30 29 28 27 27 27 28 27
33 33 34 35 35 35 35 35 36 36 35 36 35 36 35 35 35 34 34 33 33 33 32 32 32 32 32 32 32 31 31 31 31 31 31 30 30 29 29 28 29 29 29
34 35 35 36 37 37 37 38 39 39 38 38 38 38 38 37 37 36 35 36 35 35 34 33 33 33 34 33 33 33 33 33 32 32 32 31 31 31 30 30 30 30 30
36 36 36 37 38 38 38 39 40 40 40 40 40 40 38 37 37 37 37 38 37 37 35 35 36 35 36 35 35 35 35 35 34 33 33 33 33 33 32 32 32 33 32
38 38 38 38 38 39 40 40 40 40 40 40 40 40 39 39 39 39 38 38 38 37 36 36 37 37 37 37 36 36 35 35 35 34 34 34 34 34 34 33 33 33 33
40 40 40 40 40 40 40 40 40 40 40 40 40 41 41 40 39 39 39 39 38 37 36 36 37 37 36 36 36 36 36 36 35 35 35 34 34 34 34 34 34 34 33
41 41 41 41 40 40 41 41 41 40 40 40 41 41 41 40 39 39 39 38 37 37 37 37 37 38 37 37 36 37 37 37 36 36 35 35 35 35 35 35 35 34 34
41 40 41 41 41 42 42 42 42 42 41 42 42 41 40 39 39 38 38 38 38 38 38 38 39 38 37 37 36 36 36 36 36 36 36 36 35 35 36 36 36 36 36
40 40 40 41 42 43 43 43 43 43 43 43 42 42 40 39 38 38 39 39 39 39 39 38 38 37 37 37 36 35 36 36 36 36 36 36 36 37 37 36 36 36 36
41 41 41 42 44 44 44 44 44 43 41 41 41 41 41 40 39 38 38 38 39 38 38 37 36 36 36 37 36 36 36 37 37 37 37 37 37 37 37 37 36 36 36
40 41 42 42 43 43 43 43 43 42 41 41 40 40 40 39 39 39 39 39 38 37 36 37 37 37 37 37 37 37 36 36 37 37 36 37 37 37 36 36 36 36 37
40 40 41 41 40 41 40 40 40 40 39 39 39 38 38 38 38 38 39 39 38 37 37 36 36 36 36 37 37 37 37 37 36 36 36 36 36 36 36 36 36 36 37
37 37 38 38 38 38 38 37 37 37 37 37 37 37 36 36 36 37 37 38 37 36 35 35 35 36 36 35 36 37 37 36 35 34 34 34 34 35 34 35 35 36 37
34 34 35 36 36 35 35 34 34 35 34 35 35 35 36 36 35 34 34 34 34 34 34 34 35 35 36 36 36 36 35 34 34 33 33 33 34 34 34 34 35 35 36
33 33 34 34 34 34 33 32 32 33 33 33 33 33 34 34 34 33 32 32 33 33 33 34 35 35 35 35 34 34 34 34 33 33 33 33 32 32 33 33 34 34 35
32 32 32 32 32 32 31 31 31 31 31 31 31 31 31 31 31 31 31 31 32 33 33 33 34 34 34 34 34 34 34 33 33 32 31 31 31 31 31 32 32 32 33
28 29 29 29 28 28 27 27 27 27 27 28 28 29 30 30 30 30 30 30 31 31 32 32 33 33 33 33 32 32 31 31 30 31 30 30 30 30 30 31 31 31 31
24 25 25 25 25 26 26 26 27 27 26 27 27 28 28 29 29 29 29 29 30 31 31 31 31 32 32 32 31 31 30 29 29 30 30 29 29 29 30 30 30 30 30

GEFSGL_500_meanwind_210.txt.gz
Wind_Speed
20 20 19 18 17 16 16 16 16 16 15 16 15 14 14 14 14 13 13 14 14 14 15 16 16 16 16 16 16 16 17 17 17 18 18 18 18 19 20 20 21 21 22
23 22 21 21 20 19 18 18 17 17 17 18 18 17 16 16 16 15 15 16 15 15 16 17 17 17 18 18 18 18 19 19 20 20 20 21 21 21 21 22 22 22 23
24 23 22 23 22 20 21 20 19 19 19 19 18 19 19 18 18 18 18 18 18 18 18 18 19 19 20 20 20 21 21 21 22 23 22 22 22 23 23 23 23 23 23
26 24 24 23 23 22 22 22 23 22 21 21 20 21 21 21 21 21 21 21 21 21 21 21 21 21 21 22 23 23 23 24 24 24 24 24 24 24 24 24 24 25 25
28 27 26 26 26 25 25 24 24 24 23 23 23 23 23 23 24 24 24 23 24 24 24 24 24 24 24 24 25 25 25 25 25 25 25 25 25 26 26 26 25 26 26
30 29 29 29 29 28 27 26 26 27 26 26 25 25 25 26 26 25 25 26 26 26 27 27 27 27 27 27 27 27 27 27 27 26 26 26 26 26 27 27 27 27 27
33 32 32 32 31 29 29 28 28 28 29 29 27 27 27 27 27 27 28 28 28 29 29 29 30 30 29 29 29 28 28 28 27 27 27 27 27 27 28 28 28 28 28
34 34 33 32 30 31 31 29 29 29 29 29 29 29 29 29 29 29 30 30 30 30 30 31 31 30 30 30 30 29 29 29 29 29 28 28 28 28 28 29 29 29 29
35 34 34 34 33 32 31 31 31 31 31 31 30 30 29 30 30 31 31 31 31 31 31 31 31 31 31 31 32 31 31 31 31 31 30 30 29 29 30 30 30 30 29
36 35 35 35 34 33 32 32 33 33 32 32 31 31 31 32 32 32 33 34 34 34 33 33 33 33 33 33 33 33 33 32 32 32 31 31 31 31 31 31 31 31 30
37 37 36 36 35 34 34 34 34 34 33 33 33 33 33 33 33 33 34 35 35 35 35 35 35 36 36 36 36 35 35 35 35 34 33 32 32 33 33 32 32 32 31
39 38 38 37 36 36 36 35 35 35 34 34 35 35 35 34 35 35 35 36 36 36 36 36 37 37 37 37 37 36 37 37 36 35 35 34 34 34 34 33 32 32 32
38 37 38 38 37 37 36 36 36 36 36 36 36 36 37 36 37 36 36 36 38 37 37 38 38 38 38 37 37 38 38 38 37 37 36 36 35 35 35 34 33 33 33
38 38 38 39 38 38 37 37 37 37 37 38 37 37 37 38 37 37 38 38 38 38 38 38 37 37 38 38 37 37 37 38 37 37 38 37 37 36 36 35 35 34 34
39 39 39 38 38 38 38 38 38 38 39 39 39 39 39 38 38 38 38 38 38 38 38 38 38 38 37 37 37 37 37 37 37 38 38 38 37 38 37 37 35 35 35
38 37 37 37 38 39 40 40 40 40 40 40 40 40 39 39 38 38 38 38 38 38 38 38 37 36 36 36 36 37 37 37 37 37 38 38 38 38 38 37 36 36 35
37 37 37 38 37 38 39 40 41 41 40 40 40 40 39 39 38 38 38 39 39 38 38 37 36 35 34 34 35 35 36 36 37 38 38 38 38 37 37 37 37 37 37
36 37 38 38 39 39 39 40 40 40 40 40 39 39 39 39 39 38 38 39 39 39 38 38 37 36 35 34 35 35 35 35 36 37 37 38 37 37 37 37 37 37 36
36 37 37 38 39 39 39 39 40 40 40 40 39 40 39 40 40 39 39 39 39 38 38 37 36 36 36 35 35 35 35 35 35 35 35 35 35 36 37 37 37 36 37
35 36 37 38 39 39 39 38 38 38 38 38 39 39 39 39 39 38 37 38 37 37 36 36 36 36 36 36 35 35 35 34 35 35 35 35 36 36 37 38 37 37 38
34 34 35 36 37 38 37 36 36 37 37 36 37 37 38 37 37 37 37 36 36 36 36 36 36 36 36 36 36 35 35 35 35 36 36 36 36 36 37 37 38 38 38
32 32 33 34 34 35 35 34 34 34 33 34 34 34 34 34 35 35 35 35 35 35 35 35 36 36 36 36 36 36 36 35 35 35 36 36 36 36 37 37 37 37 37
31 31 31 32 32 32 32 33 32 32 32 32 32 32 32 32 32 33 34 34 34 34 34 34 35 35 36 36 37 36 36 37 36 36 36 35 35 36 36 36 35 35 35
29 29 29 29 29 29 29 30 30 30 31 31 31 31 31 30 31 31 32 32 33 33 33 33 33 34 35 36 36 36 36 37 37 37 36 35 35 36 36 35 34 33 33
27 27 26 26 27 27 28 29 29 30 30 30 30 30 30 30 30 30 31 31 31 32 32 32 32 32 33 34 35 35 35 35 35 34 34 34 34 34 34 33 32 32 32
25 24 23 24 26 27 27 28 28 28 28 28 29 29 30 30 30 30 30 30 30 31 31 30 30 31 31 32 32 33 33 33 32 32 32 32 33 33 32 32 31 31 31

GEFSGL_500_meanwind_216.txt.gz
Wind_Speed
21 21 21 21 20 20 20 20 20 20 20 20 18 19 18 18 17 17 16 16 16 16 16 16 16 16 16 17 17 18 18 18 18 17 17 17 18 18 18 18 18 19 19
23 23 23 23 22 21 22 23 23 23 23 22 21 20 19 19 19 18 18 17 17 17 18 17 17 18 18 18 19 19 19 19 19 19 19 19 19 20 21 21 20 20 20
26 26 25 25 24 24 24 25 25 25 24 23 22 21 21 21 20 19 19 19 19 20 19 19 19 20 20 21 21 21 21 21 21 21 21 21 22 22 23 23 23 22 22
28 28 28 28 27 26 26 25 26 24 23 24 23 23 23 22 21 20 21 21 21 22 22 22 22 22 22 23 23 23 23 22 23 23 23 23 23 23 24 24 25 24 24
30 30 30 30 30 29 28 27 26 25 25 25 25 24 24 24 23 23 23 23 24 24 24 24 24 24 24 24 24 25 25 24 24 24 25 25 25 26 26 26 26 26 25
33 32 33 33 32 31 31 30 29 28 28 27 26 25 25 25 25 25 25 25 25 25 24 24 24 25 26 27 27 26 26 27 26 26 26 26 26 27 27 27 27 27 26
35 35 34 34 34 33 33 33 33 31 30 30 29 28 28 28 28 28 27 27 26 25 25 26 27 27 28 28 29 29 29 29 29 28 28 27 27 28 28 28 28 28 28
36 35 35 35 35 35 35 34 34 33 32 32 31 30 30 31 30 30 29 29 28 27 28 28 29 30 30 30 30 30 30 30 30 29 29 29 29 29 29 29 29 30 30
37 36 36 37 37 36 35 34 35 34 33 34 33 33 32 32 32 32 31 31 29 29 30 30 31 31 31 31 31 31 30 30 30 31 31 31 31 31 31 30 30 30 30
37 38 38 38 39 38 36 35 35 34 35 35 35 35 34 33 33 33 33 32 31 31 32 32 32 32 32 33 32 33 32 32 32 32 32 33 33 32 32 32 31 31 31
39 40 39 38 38 37 37 36 35 35 35 36 35 35 35 35 35 35 35 34 34 34 33 33 33 33 33 34 35 35 35 35 35 35 34 34 34 33 32 32 32 32 31
38 38 38 38 36 37 37 37 37 37 37 36 36 36 36 36 35 34 34 35 35 35 34 34 34 34 35 36 36 37 37 37 37 37 36 35 34 34 33 33 33 33 32
37 37 37 37 37 38 38 39 38 38 38 38 37 36 35 36 36 35 36 36 36 36 36 36 37 37 37 37 37 38 38 38 37 37 36 35 35 35 35 35 34 33 33
37 36 35 35 36 37 37 37 37 37 37 37 37 37 36 36 36 36 36 36 37 38 38 38 38 39 39 38 39 39 39 39 38 36 36 36 36 36 36 36 35 35 35
35 34 34 35 35 36 37 36 35 36 37 37 36 36 37 36 36 36 37 38 39 39 40 40 40 39 40 40 40 40 40 39 38 37 37 36 36 36 36 36 37 37 37
33 33 34 35 35 35 36 36 35 35 35 36 36 37 37 38 38 38 38 39 39 39 39 39 39 40 40 40 40 39 39 39 38 38 37 37 37 37 37 37 37 37 37
33 34 35 35 35 36 36 35 35 36 36 36 37 38 39 40 40 40 40 40 40 40 40 40 39 39 40 40 40 40 39 38 38 38 38 38 38 38 38 37 36 36 36
34 34 35 35 35 35 34 34 35 36 37 38 38 39 39 40 40 40 40 41 41 41 40 39 39 39 40 40 40 39 38 37 38 38 38 38 38 38 37 37 36 36 35
33 33 34 35 35 35 35 35 35 36 37 37 37 38 38 38 38 39 39 40 40 40 40 39 39 39 39 39 38 38 38 38 38 37 37 37 37 37 36 36 36 35 35
32 33 34 34 34 33 33 33 33 35 36 36 36 37 37 37 38 38 39 39 39 39 39 38 38 39 39 38 38 38 38 37 36 36 37 37 37 37 36 36 36 35 34
31 32 32 32 32 31 32 32 33 34 35 35 35 35 36 37 38 38 38 38 38 37 37 37 38 38 38 38 38 38 37 37 37 37 37 36 36 36 36 36 36 36 35
31 31 30 30 30 31 31 31 31 32 33 33 35 35 36 37 38 38 37 37 37 36 36 36 36 36 37 37 36 36 36 36 37 37 37 36 36 35 35 35 35 36 36
29 29 29 30 29 29 30 30 30 31 32 33 34 35 35 36 36 36 35 34 34 34 35 36 36 35 35 35 36 36 36 36 36 36 36 35 35 34 34 34 35 35 35
27 28 27 27 28 28 29 29 30 31 32 33 33 34 34 35 35 35 34 34 34 34 34 35 35 34 34 34 34 35 35 35 35 35 35 35 34 34 34 34 35 34 34
24 25 26 27 27 27 28 29 29 29 31 32 32 32 32 32 32 33 33 33 34 34 34 33 33 34 33 33 33 34 34 33 33 34 34 34 34 34 33 33 32 32 31
24 25 25 25 26 26 27 28 29 29 30 30 30 30 30 30 30 30 31 32 32 31 31 31 31 32 31 31 31 31 31 31 32 32 32 32 31 31 31 30 30 30 29

GEFSGL_500_meanwind_222.txt.gz
Wind_Speed
18 18 18 18 19 19 19 19 19 18 17 17 17 17 16 16 15 15 15 16 16 16 16 16 16 17 16 15 15 15 15 16 15 15 16 16 16 17 17 17 17 18 18
19 19 19 20 21 21 21 21 21 21 21 20 20 19 19 18 17 17 18 18 18 17 17 17 17 18 18 17 17 17 18 18 17 17 17 18 18 18 19 19 19 20 20
22 21 22 22 22 22 23 23 22 22 22 21 21 21 21 21 20 20 20 20 19 19 19 18 18 18 18 18 18 19 19 19 19 18 18 19 19 19 20 20 20 21 21
24 24 24 24 24 25 24 24 24 23 23 22 23 23 23 23 23 23 22 21 21 20 20 20 19 19 20 20 19 20 20 21 20 20 20 20 20 21 22 22 22 21 22
28 28 27 27 26 27 27 27 27 26 26 26 26 25 25 25 24 24 24 23 22 22 21 21 21 21 21 21 21 21 22 22 21 21 21 21 22 22 24 24 25 24 23
30 31 31 31 29 28 28 28 28 28 28 28 28 28 28 28 26 25 25 25 25 23 23 23 23 22 22 22 22 23 23 23 23 23 23 23 23 24 25 25 26 26 25
32 33 33 32 31 30 30 30 29 30 30 30 30 29 29 28 28 28 27 27 27 26 26 25 25 24 25 24 24 24 24 25 25 25 25 25 25 25 26 26 26 27 27
32 32 32 33 33 32 32 32 31 31 31 31 31 31 33 33 31 30 29 29 29 28 28 28 27 27 27 27 26 26 26 27 27 27 27 27 27 26 26 26 27 27 28
33 33 34 34 34 35 34 33 33 33 33 33 33 34 35 34 33 32 31 30 31 31 30 30 29 29 29 29 29 29 28 28 29 29 28 28 29 29 28 28 28 28 28
33 34 35 36 37 37 37 36 35 35 36 36 35 35 35 35 34 34 32 31 31 31 32 32 32 32 31 31 31 30 30 30 30 30 30 30 30 31 31 30 30 29 29
35 36 37 38 39 39 38 38 38 38 37 37 36 37 36 35 34 34 34 33 32 32 33 33 34 33 33 33 33 32 32 32 31 31 32 31 31 32 32 32 32 31 31
36 36 37 37 38 39 39 39 39 39 38 38 38 37 37 36 35 34 35 34 33 33 33 33 34 34 34 35 35 34 33 33 33 32 32 32 32 32 32 33 33 33 33
35 35 36 36 37 38 39 39 39 38 38 38 38 37 36 36 35 35 35 34 34 34 34 33 33 34 35 36 36 36 35 35 34 34 33 33 33 34 33 33 34 34 34
34 34 35 35 36 37 37 37 37 37 36 36 36 36 35 34 35 34 34 35 35 35 34 34 34 35 35 35 37 38 37 36 36 35 35 35 35 35 35 35 35 35 35
34 34 34 35 35 35 36 36 36 35 36 35 35 35 34 34 33 33 33 34 34 34 35 36 36 36 36 37 37 38 37 37 37 37 37 36 36 36 36 36 36 36 36
34 34 34 34 34 34 35 35 35 33 33 33 34 34 34 34 34 34 34 34 35 35 36 37 37 37 37 37 38 38 39 39 39 39 39 38 38 37 36 36 36 36 36
34 34 34 34 33 33 33 33 32 32 33 33 33 33 33 33 34 33 33 34 35 36 36 37 38 37 37 37 38 39 39 39 39 39 39 39 38 38 37 36 36 36 35
34 34 34 33 33 33 32 32 32 31 31 31 31 31 32 33 35 35 35 35 35 34 35 35 36 36 36 37 38 38 38 38 38 38 38 39 38 38 37 36 36 36 35
32 32 32 32 32 31 31 31 31 31 30 30 30 30 31 33 34 34 33 34 34 34 34 34 34 34 35 35 36 37 37 37 37 37 37 37 37 37 37 36 36 35 35
31 31 31 31 31 31 31 31 31 31 30 30 30 30 31 32 32 33 33 33 34 34 34 34 34 34 34 35 35 36 37 37 37 37 37 37 37 37 37 36 35 35 35
31 31 31 31 31 31 31 31 31 30 30 30 30 30 30 31 32 33 33 33 33 33 33 33 33 33 33 33 33 34 34 34 34 35 35 36 36 36 35 35 35 34 34
30 30 29 29 30 31 31 31 31 31 30 29 30 29 30 31 32 32 32 32 32 32 32 32 32 32 32 33 33 33 33 33 33 33 34 34 34 34 34 34 33 33 33
28 29 29 29 29 29 30 30 29 29 29 30 30 30 30 29 29 30 32 33 32 32 32 33 32 32 33 33 32 32 33 33 33 33 33 33 33 33 32 32 32 32 33
26 27 27 28 28 28 28 28 28 29 29 29 29 29 29 30 31 31 31 32 31 31 31 32 32 31 31 31 31 31 31 32 32 32 32 32 32 32 32 31 30 31 32
24 25 25 25 25 24 24 25 26 27 28 27 27 27 28 28 29 29 30 30 29 29 29 30 30 30 30 29 30 30 31 31 31 31 30 30 30 30 30 30 29 29 29
23 23 23 22 22 22 23 23 24 25 25 25 25 26 27 28 28 29 28 28 28 28 28 28 28 28 28 28 28 29 29 30 30 30 29 29 29 29 29 29 29 29 28

GEFSGL_500_meanwind_228.txt.gz
Wind_Speed
20 19 19 20 21 20 19 19 19 19 19 19 19 19 19 18 17 17 17 17 17 17 17 17 18 18 18 18 18 18 18 18 18 18 19 20 20 21 20 20 20 19 19
21 21 21 21 21 21 21 21 20 20 21 21 21 21 20 20 20 19 19 19 19 19 19 19 19 20 20 19 19 19 20 20 19 19 19 19 20 20 20 21 21 21 20
23 23 22 22 22 22 23 23 23 23 23 23 23 23 22 21 21 21 22 22 22 22 22 22 21 21 21 21 21 21 21 21 21 21 20 20 20 20 19 20 21 21 22
24 24 24 24 24 25 25 25 25 26 26 26 25 24 23 23 23 24 25 25 24 24 24 24 24 23 22 23 23 23 23 22 22 22 21 21 21 20 20 20 21 23 24
25 25 25 26 26 26 27 28 27 27 28 29 28 27 26 25 25 26 27 27 26 26 26 27 26 25 25 25 25 25 25 24 24 23 23 22 22 22 22 23 23 23 24
27 27 28 29 29 28 29 30 29 29 30 29 29 29 28 27 28 29 29 28 28 28 28 28 27 27 27 27 27 27 27 26 25 25 25 24 24 24 24 25 25 25 25
29 29 30 30 30 30 31 31 32 31 31 30 30 30 30 30 31 31 32 31 31 31 31 30 29 29 29 30 29 29 28 28 28 27 26 26 26 27 27 27 27 27 27
32 32 32 32 32 32 33 33 32 31 31 31 31 32 33 33 33 34 34 33 33 33 33 34 32 31 32 31 31 31 31 31 31 30 29 28 29 29 29 29 29 29 29
34 33 32 33 33 33 34 33 33 33 33 33 33 33 34 34 34 33 34 34 34 35 34 34 34 33 33 33 33 33 33 33 33 32 31 31 31 31 31 31 31 30 30
35 34 33 34 35 34 34 34 34 34 34 34 34 34 34 34 34 34 34 35 35 35 35 35 35 35 35 35 34 33 34 34 34 33 33 34 33 33 33 33 33 32 32
36 35 35 35 35 34 34 35 35 35 35 34 35 35 35 34 34 34 34 34 35 36 36 36 35 35 35 36 36 35 35 35 35 35 35 35 35 35 34 34 34 34 34
36 36 36 35 35 36 36 36 36 36 36 36 35 35 36 35 34 34 34 34 35 35 36 36 36 35 36 36 36 36 36 36 36 36 36 36 36 36 36 36 35 35 35
37 37 36 35 36 37 37 36 36 36 37 36 35 35 35 35 34 33 34 34 35 35 35 35 35 35 35 35 36 36 37 36 36 36 37 37 37 36 36 37 36 36 36
36 37 37 37 36 36 36 36 36 36 36 36 36 35 34 34 33 34 34 35 36 36 35 35 35 36 36 35 36 37 37 37 37 37 38 38 37 38 38 38 37 37 37
37 38 38 37 37 36 36 36 36 36 36 36 35 34 34 34 33 34 35 36 36 36 36 36 35 36 36 36 36 36 36 37 37 38 38 38 38 38 39 38 38 38 38
36 36 37 37 37 37 37 36 36 36 36 36 35 35 34 34 33 33 34 34 35 35 36 36 36 37 37 36 35 36 37 37 38 38 38 38 38 38 38 38 38 38 38
35 36 37 37 36 36 36 36 36 36 35 35 35 35 35 34 33 32 32 33 34 34 34 34 35 36 36 35 35 36 37 37 37 38 38 38 38 38 37 37 37 37 37
34 35 35 36 37 37 36 36 36 36 35 35 35 35 35 34 33 32 33 33 33 34 33 34 35 35 36 35 36 37 37 37 37 37 37 38 37 37 37 37 37 37 38
33 33 34 35 35 36 35 35 36 36 35 35 35 34 34 33 33 33 33 32 32 33 33 33 34 35 35 35 35 35 35 35 35 35 35 35 36 36 36 35 35 35 36
32 32 33 34 34 34 34 35 35 34 34 34 34 34 34 33 33 33 33 33 32 32 33 33 33 33 33 33 33 33 33 33 33 33 33 34 35 36 36 36 36 35 35
30 31 32 32 31 30 30 31 33 33 33 33 32 32 33 32 32 32 32 31 31 32 32 31 30 30 31 31 32 32 33 32 32 32 32 33 34 35 35 35 34 34 34
27 28 28 29 27 28 28 29 29 30 30 30 31 31 31 31 31 30 31 31 31 31 31 30 30 30 30 29 30 31 31 30 31 32 32 32 33 33 34 34 34 33 33
27 27 28 28 27 27 27 28 28 28 28 29 29 29 30 30 30 30 30 30 30 30 30 29 28 28 28 28 29 29 29 30 30 30 31 31 31 32 32 32 33 33 32
25 25 26 26 26 26 26 26 25 26 26 26 27 27 28 29 29 30 30 29 28 28 28 28 27 28 28 28 28 28 29 29 29 29 29 29 29 29 30 31 31 30 30
24 24 24 24 25 25 24 24 25 25 25 25 26 26 26 27 28 28 28 28 27 27 27 28 28 28 28 29 29 30 30 30 30 29 29 29 28 29 30 30 29 29 29
24 24 24 24 24 25 25 25 25 25 25 25 25 25 25 26 26 26 26 26 27 27 28 29 29 28 28 28 28 29 29 29 29 29 28 27 28 28 28 28 29 28 28

GEFSGL_500_meanwind_234.txt.gz
Wind_Speed
20 19 19 19 19 19 19 19 19 18 18 18 18 17 17 17 17 17 18 18 17 17 16 17 18 18 19 19 18 18 18 19 19 19 20 20 20 20 20 21 20 20 20
23 23 23 23 22 22 22 22 21 20 19 19 20 20 19 19 19 19 19 19 19 19 19 19 20 21 21 21 21 21 21 21 21 22 22 21 21 22 22 22 22 23 22
26 26 25 25 24 24 24 25 24 23 22 22 22 22 22 21 21 22 22 22 22 21 22 22 23 23 23 23 24 24 24 24 24 24 24 23 24 24 24 24 24 23 23
29 29 29 28 27 27 27 27 26 25 25 25 24 24 24 24 24 23 24 25 24 24 24 24 25 25 26 26 26 26 27 27 27 26 26 25 25 25 25 24 24 24 24
31 31 31 31 30 29 29 29 29 28 27 27 26 26 27 27 26 27 27 27 27 27 27 27 27 27 28 28 28 28 28 28 28 27 27 27 26 26 26 26 25 26 26
32 32 32 32 31 31 31 31 30 29 28 27 27 28 28 28 28 28 28 28 28 29 29 30 30 29 29 29 29 28 28 29 29 29 29 29 28 29 29 28 28 28 28
34 33 33 33 34 33 32 31 30 30 30 30 30 30 29 30 30 30 30 31 31 31 32 32 32 31 31 31 31 31 31 31 30 31 31 30 31 31 31 31 31 31 30
36 35 34 34 34 34 33 33 32 32 32 31 31 31 31 31 32 32 33 34 33 33 33 33 33 32 32 33 33 33 33 33 32 32 32 33 33 33 33 33 33 33 33
36 35 34 34 35 35 35 34 34 34 34 33 32 32 33 33 33 33 34 35 36 35 35 35 34 33 33 34 34 34 34 34 34 34 34 33 34 35 36 36 35 35 34
35 35 35 35 35 36 35 35 36 35 34 33 33 34 34 34 34 35 36 36 37 36 36 36 36 35 35 35 36 36 35 35 36 36 36 35 36 36 36 37 37 36 36
33 35 36 37 37 36 36 37 36 35 35 35 35 36 36 36 36 37 36 36 37 37 37 37 37 37 37 37 37 36 37 37 37 37 38 38 37 37 37 37 38 38 37
35 35 36 38 39 38 37 37 37 37 37 37 37 36 36 37 37 37 37 37 37 37 37 37 37 37 38 38 38 38 38 38 38 38 38 38 38 37 37 37 38 38 39
37 37 37 38 39 38 38 38 39 39 39 38 38 37 37 38 38 38 38 38 38 37 37 37 37 37 37 37 37 38 38 38 38 38 38 37 37 36 37 37 37 37 38
37 37 37 38 38 38 38 39 39 39 40 40 39 40 39 39 39 39 38 38 38 37 36 36 36 35 36 36 36 36 36 37 37 37 37 37 36 36 36 36 35 35 36
37 37 37 37 37 38 38 39 40 40 40 39 39 39 39 39 39 39 38 37 37 37 36 36 35 35 35 35 36 35 35 36 36 36 37 37 37 36 36 35 35 35 35
37 38 38 38 38 39 39 39 40 40 40 39 38 38 38 38 38 37 37 37 37 37 37 36 36 36 35 35 36 35 34 34 35 35 36 36 36 36 35 35 35 36 35
38 37 37 37 38 39 39 39 39 39 39 38 37 37 37 38 38 38 38 38 37 37 36 36 36 36 35 35 35 34 34 34 35 35 34 34 34 34 34 34 34 35 35
35 35 36 37 37 37 37 37 37 37 37 36 36 36 37 37 37 37 37 37 36 36 35 36 35 35 34 34 34 34 33 34 35 34 33 33 33 34 34 34 33 33 34
34 34 35 35 36 36 36 36 35 35 35 35 35 36 36 35 36 36 36 35 35 34 35 34 33 33 34 34 35 34 33 33 33 33 32 31 31 32 32 33 33 32 33
32 32 33 34 34 34 35 35 35 34 34 34 34 35 35 35 35 35 34 34 34 33 33 32 32 33 33 33 33 33 32 32 32 32 31 31 31 31 31 31 31 31 31
31 31 31 31 32 33 33 33 33 33 33 33 34 34 34 33 33 33 33 33 32 32 32 32 33 32 32 31 31 31 31 31 31 31 31 31 31 31 31 31 31 31 31
29 30 30 31 31 31 30 29 30 30 30 31 32 32 32 32 32 32 32 32 32 32 33 33 32 31 30 29 29 30 30 30 30 30 30 30 30 30 30 30 30 30 31
27 28 29 29 29 28 28 28 28 28 29 29 30 30 30 31 31 31 31 31 31 32 31 31 31 30 30 29 29 29 30 30 30 30 29 29 28 28 29 29 29 28 29
27 27 28 27 27 27 27 27 27 27 27 27 27 28 28 29 29 29 29 29 29 29 30 30 29 29 29 29 29 30 29 28 28 27 27 27 27 27 28 28 28 28 28
26 26 26 26 27 27 27 27 27 26 26 26 26 26 26 26 27 28 29 29 29 28 28 28 28 28 28 29 29 29 28 27 27 27 27 26 27 27 27 27 28 28 27
25 25 25 25 26 26 26 26 26 26 26 26 26 26 26 27 27 27 28 28 28 27 27 28 28 28 28 28 29 29 29 29 28 27 27 27 27 27 27 27 27 27 27

GEFSGL_500_meanwind_240.txt.gz
Wind_Speed
19 18 18 18 18 19 19 19 19 18 18 18 19 18 17 17 18 18 17 17 17 17 18 18 18 18 18 18 18 19 19 19 19 19 19 19 20 20 20 21 21 21 21
21 21 21 21 21 21 21 21 21 21 21 21 21 20 19 20 20 20 20 19 19 19 20 20 20 21 21 21 21 21 22 21 21 21 21 21 22 22 22 23 23 23 23
23 24 24 23 24 25 24 24 24 24 23 23 23 22 23 23 22 22 22 22 23 23 23 23 23 23 23 23 23 23 24 24 24 24 23 23 23 23 24 24 23 23 23
25 25 26 26 27 27 27 27 27 26 26 25 25 25 25 24 24 24 24 25 26 26 26 26 25 25 25 25 25 26 26 26 26 26 26 25 25 25 25 25 24 24 24
28 27 28 28 28 29 30 30 30 29 28 27 27 26 26 26 27 27 27 27 27 27 27 27 27 27 27 28 28 28 28 28 28 28 27 27 27 27 27 26 26 26 26
30 30 30 30 30 31 31 31 31 31 29 28 28 28 28 28 29 29 30 29 29 29 29 29 29 29 30 29 29 28 29 29 30 30 29 29 28 29 29 28 28 28 28
31 32 32 32 33 32 33 33 32 31 30 28 28 29 30 31 31 31 31 31 31 31 31 31 31 31 32 32 31 31 32 32 32 32 31 32 31 31 31 31 31 31 31
32 33 34 34 35 34 34 33 33 33 32 31 30 30 31 32 32 32 32 33 32 32 32 32 32 33 33 34 34 34 33 33 33 33 33 34 34 33 33 33 33 33 33
34 34 35 36 36 36 35 35 35 34 34 33 32 32 32 33 33 33 34 33 34 34 34 34 34 35 35 35 35 34 34 34 34 35 35 35 34 35 35 35 35 35 35
36 36 36 37 37 37 37 37 37 37 36 34 33 33 33 32 33 34 35 35 35 35 36 35 36 36 36 36 36 35 35 35 36 36 36 36 36 36 36 36 36 36 36
37 37 36 36 37 37 37 38 38 37 36 35 35 35 34 34 34 35 35 35 36 37 37 35 36 37 37 37 38 38 37 37 38 38 38 38 37 37 37 37 36 37 36
37 36 36 37 36 36 37 37 37 37 36 36 36 36 36 35 36 36 35 36 37 37 37 37 37 37 38 38 38 39 39 39 39 39 38 38 38 37 37 37 37 36 36
37 38 38 38 37 37 38 37 37 37 37 37 36 36 36 37 37 37 37 37 37 38 38 38 38 38 38 37 38 38 39 39 39 39 38 38 38 38 36 36 36 36 36
38 38 38 38 38 38 39 39 38 38 38 37 37 38 38 38 37 36 36 37 38 38 38 37 38 37 38 38 38 38 37 37 38 38 37 36 37 37 36 35 36 36 36
38 38 38 38 38 38 37 37 38 38 38 38 38 38 38 37 37 37 37 38 38 38 38 38 38 38 38 37 36 36 36 35 35 36 36 36 36 36 36 36 36 36 36
37 37 37 37 37 38 37 37 37 37 37 37 37 37 38 38 38 38 38 39 39 38 38 38 38 38 38 37 36 36 35 35 35 35 35 35 35 35 35 34 35 36 36
37 37 37 37 36 36 37 37 37 36 36 36 36 37 37 37 38 38 39 39 39 38 38 38 38 37 36 35 35 35 35 35 35 35 34 34 34 35 35 34 34 35 35
36 36 35 35 35 36 36 36 36 37 37 36 36 37 37 37 36 37 38 38 38 38 38 37 36 35 34 34 34 35 35 35 35 35 35 34 34 34 35 35 34 34 34
36 35 35 35 34 34 34 35 36 36 37 37 36 36 37 38 38 37 38 38 37 37 36 35 34 34 34 34 34 34 35 35 35 34 34 34 34 35 34 34 33 33 34
35 35 35 35 35 34 33 34 34 35 35 36 36 36 36 37 37 38 37 36 35 35 34 34 34 34 34 33 34 34 34 34 34 34 33 34 34 34 34 34 33 33 33
33 33 34 33 33 34 33 34 34 35 36 36 36 36 36 36 36 36 36 35 34 34 34 34 34 34 34 34 33 33 33 33 33 33 33 34 34 35 34 34 33 33 32
31 31 31 31 32 32 31 31 32 32 32 32 32 32 33 34 35 35 35 33 33 34 34 35 35 35 34 34 34 34 34 34 34 33 33 33 33 33 34 34 33 32 32
31 30 30 30 30 29 30 30 31 31 31 30 31 31 32 32 33 34 34 34 34 34 34 34 34 33 33 34 33 32 32 32 32 32 32 32 32 33 33 32 32 31 30
30 30 30 30 30 30 30 30 30 30 30 30 30 30 31 31 32 32 33 33 33 32 32 32 33 33 33 32 31 31 31 32 31 31 30 30 31 31 31 31 30 30 29
30 30 30 30 30 30 30 30 30 29 29 29 29 29 30 30 29 30 30 31 30 30 30 31 31 31 30 30 30 30 30 30 30 29 29 29 29 29 29 29 30 30 29
29 29 28 28 29 29 29 29 29 29 29 29 29 30 29 29 29 29 30 30 30 29 29 29 30 30 30 30 29 29 29 29 29 29 29 28 28 28 28 29 29 29 29

GEFSGL_500_meanwind_246.txt.gz
Wind_Speed
14 14 14 14 14 15 15 16 16 16 16 16 17 16 16 17 17 17 16 16 16 16 16 16 17 17 17 17 17 18 18 18 18 18 18 18 18 18 18 18 18 18 19
17 18 18 18 18 18 18 18 19 19 19 19 19 19 18 19 19 19 18 18 18 18 18 18 19 19 18 18 19 20 20 21 21 20 20 20 20 19 19 19 20 20 21
20 20 21 21 21 21 21 22 22 22 22 22 22 22 22 21 21 20 19 19 20 20 19 19 19 19 19 19 20 21 22 23 23 23 22 22 22 21 22 22 22 22 23
22 23 24 24 24 24 24 24 24 24 24 24 24 24 24 23 22 22 21 21 21 21 21 21 21 21 22 22 23 24 24 25 25 25 25 25 24 25 24 24 24 24 24
25 26 26 26 27 26 26 26 26 26 26 26 26 25 25 24 24 23 23 23 22 22 23 23 24 24 25 26 26 27 27 27 27 28 28 27 26 27 27 26 26 26 25
28 28 27 27 28 27 27 27 27 27 28 28 27 26 26 25 25 24 25 25 25 25 25 25 26 26 27 28 28 29 28 29 29 29 29 28 28 28 29 28 28 28 27
30 30 30 29 30 29 29 29 28 28 28 28 28 27 27 27 27 26 27 27 27 27 27 27 28 28 29 29 30 30 29 29 29 29 30 29 30 30 30 30 30 30 30
33 33 32 31 31 30 30 30 30 30 30 29 29 29 29 29 29 28 28 28 28 29 29 29 29 29 29 30 30 30 30 30 31 31 31 30 30 31 32 32 32 32 33
35 34 33 32 32 32 32 32 32 33 32 32 32 31 31 31 31 30 30 30 30 30 30 30 29 30 30 31 31 31 31 31 32 32 31 31 31 32 33 34 34 34 34
34 35 36 35 34 33 34 34 34 34 34 33 33 33 32 32 32 32 33 33 32 32 32 32 32 32 32 32 32 32 32 32 32 32 32 32 33 34 35 35 35 35 35
36 36 35 35 33 33 34 34 33 34 34 34 35 35 34 34 34 34 34 34 33 34 34 32 32 33 33 33 33 33 33 33 33 33 33 34 34 35 35 35 36 36 35
37 36 36 36 34 34 34 35 35 35 35 36 36 37 37 36 36 36 35 34 34 34 34 34 33 33 33 34 34 33 33 34 34 34 34 35 35 36 36 36 36 36 35
37 37 37 37 36 36 36 37 36 36 36 37 37 36 36 36 36 35 35 35 34 34 34 34 34 34 34 35 35 35 34 35 35 35 35 36 36 36 35 35 35 35 35
37 37 36 36 36 36 37 37 38 37 36 36 35 35 35 35 35 34 34 35 35 35 35 34 34 34 34 34 35 35 35 35 35 35 35 35 35 35 35 35 35 35 35
37 38 37 36 35 35 36 36 36 36 36 36 35 34 33 33 33 34 35 34 34 34 34 34 34 35 35 35 35 35 35 35 34 34 33 33 33 33 34 34 35 35 35
37 37 37 36 35 35 35 35 35 35 35 35 34 33 33 33 33 34 34 34 34 34 34 34 34 35 35 35 34 34 34 34 33 33 33 33 33 33 34 34 35 34 34
37 37 36 35 35 35 34 34 34 34 34 33 33 33 32 32 32 32 32 32 33 33 33 33 33 34 34 34 34 34 33 34 33 33 33 33 33 33 33 33 33 33 33
35 35 34 33 34 34 34 34 34 33 33 33 33 33 33 33 33 32 32 32 32 33 33 33 33 33 33 33 33 33 32 33 33 33 33 33 33 32 32 32 32 32 32
33 33 33 32 33 33 33 34 33 33 33 33 33 32 32 32 32 32 32 33 33 33 33 33 33 33 33 33 33 33 33 33 33 33 33 33 32 32 32 32 32 32 32
33 33 32 32 32 32 33 33 33 33 33 33 33 33 32 32 32 33 33 34 34 34 33 33 32 33 33 33 33 33 33 33 33 33 32 32 32 32 33 33 32 32 32
33 33 33 32 32 32 31 32 32 31 32 32 32 31 31 32 33 33 33 33 34 34 33 32 33 33 34 34 34 34 34 33 33 32 32 32 32 33 33 33 33 33 32
32 33 33 32 32 32 31 31 31 31 30 30 30 31 32 32 33 33 33 33 33 33 33 33 33 34 35 35 35 34 33 33 32 32 32 32 32 33 33 33 33 33 32
31 30 32 32 32 31 31 31 31 31 31 30 31 31 32 32 31 31 32 32 32 32 33 34 35 34 34 34 33 33 33 32 32 31 31 31 31 32 32 32 32 32 32
30 30 31 31 30 29 30 30 30 31 31 31 30 31 31 31 31 31 31 31 30 30 31 32 33 33 33 32 32 32 31 31 31 30 31 31 31 31 31 31 32 32 32
29 28 28 28 28 28 29 30 31 30 30 30 30 31 31 31 30 30 30 30 30 30 31 31 31 31 30 30 30 30 30 30 29 30 30 30 30 30 30 30 30 30 30
27 27 28 28 28 28 28 29 30 30 30 30 30 30 30 30 29 30 30 30 30 30 30 30 29 29 29 29 28 28 28 28 28 29 29 29 29 28 28 29 29 29 29

GEFSGL_500_meanwind_252.txt.gz
Wind_Speed
16 15 16 16 16 16 17 18 18 19 19 20 20 20 20 19 19 19 19 18 18 18 18 18 18 19 19 19 20 21 21 21 21 20 20 20 20 21 21 22 23 23 23
18 18 18 19 19 19 20 20 20 20 21 22 22 22 22 22 22 21 21 20 20 20 20 20 20 20 21 21 20 20 20 21 21 21 21 22 22 23 23 24 25 25 24
20 20 21 22 23 23 23 23 23 24 23 23 23 24 24 24 24 23 23 23 22 22 22 22 22 22 22 21 21 21 21 21 21 22 22 22 23 24 25 25 26 26 26
23 23 23 24 24 25 26 26 25 26 25 25 25 25 25 25 25 26 25 25 24 24 24 24 24 24 24 23 24 24 24 24 24 24 23 24 25 25 26 26 27 27 27
26 26 26 26 26 27 27 27 28 27 27 26 26 26 27 27 27 27 27 27 26 25 25 25 25 25 25 25 26 26 27 27 26 26 26 26 27 27 28 28 27 27 28
29 29 29 29 29 29 29 30 30 29 29 29 28 28 28 28 27 27 27 28 28 27 27 26 26 26 27 27 27 28 28 28 28 29 29 28 28 28 29 29 29 29 29
31 31 32 32 31 31 32 32 32 32 32 31 31 31 30 29 29 29 29 29 29 29 29 28 27 28 28 28 29 30 30 30 30 30 30 30 30 30 30 30 31 30 30
33 33 34 33 33 34 34 33 34 34 34 33 32 32 31 31 31 31 31 31 31 30 30 30 30 30 30 31 31 31 32 32 31 31 31 32 32 32 32 33 32 32 32
34 34 35 35 36 36 35 35 35 35 34 34 33 32 32 32 33 33 33 33 32 31 32 32 32 32 32 33 33 32 32 33 33 32 32 32 33 34 34 34 34 33 33
35 35 36 37 37 37 37 37 36 35 34 34 33 32 32 33 34 35 35 35 35 35 35 35 35 34 34 34 34 34 34 34 33 34 34 34 34 35 35 35 34 34 34
36 37 37 37 38 38 37 38 37 36 35 34 33 32 33 33 34 35 36 36 37 37 36 36 35 35 35 35 35 35 35 35 35 35 35 35 35 35 35 35 35 34 34
39 38 38 38 39 38 38 37 37 36 35 36 34 33 33 34 35 35 36 37 37 38 38 37 36 36 36 36 37 37 37 36 36 36 35 35 35 35 35 35 35 35 35
41 40 40 39 38 37 37 37 36 35 35 34 34 34 34 35 35 35 36 37 37 37 37 37 37 37 38 38 38 38 37 36 36 35 35 35 35 35 35 35 36 35 35
40 39 38 37 37 37 37 37 37 37 35 35 35 34 35 35 35 36 36 37 38 38 38 38 38 38 38 38 37 36 36 35 35 35 35 35 35 35 35 35 36 36 35
39 37 37 37 36 37 37 37 38 37 36 35 34 34 35 35 35 35 36 36 37 37 37 38 37 37 37 37 36 36 36 36 36 35 34 34 35 35 35 35 35 35 35
39 38 38 37 37 37 37 37 38 37 35 35 35 35 35 35 35 36 36 36 35 35 36 36 36 36 35 35 35 35 36 36 35 35 34 34 34 34 34 34 34 34 33
38 38 38 38 38 38 38 38 36 36 36 36 35 35 35 35 35 35 35 36 36 36 35 35 35 35 35 34 35 35 36 36 35 34 33 33 33 34 34 34 34 33 33
37 36 37 37 37 35 35 35 35 35 34 35 34 34 34 34 34 34 35 35 34 34 35 35 36 36 35 35 35 35 35 34 35 34 33 33 33 34 34 34 34 33 33
36 36 35 35 35 33 34 33 33 33 33 34 35 35 34 34 34 34 34 35 35 35 34 34 35 35 35 35 35 34 34 33 33 34 34 34 34 34 34 33 33 33 33
35 35 34 33 33 33 33 32 32 32 32 32 32 32 32 33 33 34 35 34 34 35 35 34 34 34 35 34 33 33 33 33 33 34 34 34 34 34 34 33 32 32 32
34 33 33 32 32 33 33 32 31 31 31 31 31 31 32 33 34 34 35 34 34 34 34 35 34 33 33 33 32 32 33 33 33 34 34 34 33 33 33 32 32 31 31
33 32 31 31 32 33 32 31 30 30 30 30 30 32 33 33 33 34 34 33 32 33 33 34 34 34 34 33 32 33 33 33 33 33 33 33 33 32 32 31 31 31 31
31 31 30 30 30 30 30 29 29 29 30 30 30 31 30 31 32 33 32 32 32 32 32 32 32 32 33 33 33 33 34 34 33 32 32 33 33 32 32 31 31 31 30
29 29 28 28 28 27 27 26 27 28 29 30 30 30 29 30 31 31 32 32 32 32 32 32 32 32 33 33 33 33 33 33 32 33 33 33 32 32 31 31 30 30 29
28 27 28 28 28 27 28 27 27 28 28 29 29 30 30 30 31 31 31 32 32 33 33 32 32 32 33 33 32 33 33 32 32 32 32 32 32 31 31 30 30 29 29
28 28 28 29 28 27 27 28 28 29 30 30 30 30 30 31 30 30 30 31 32 32 33 33 32 32 32 32 31 31 31 31 31 31 31 31 31 31 31 30 29 28 27

GEFSGL_500_meanwind_258.txt.gz
Wind_Speed
18 19 19 18 19 19 19 19 19 19 20 20 20 20 20 20 20 20 20 20 20 19 19 19 19 19 20 20 20 20 19 19 19 20 20 20 21 21 22 23 24 24 24
20 20 20 20 21 21 21 21 21 21 22 22 22 22 22 22 22 22 22 22 22 21 21 21 21 22 21 21 21 21 21 20 21 22 22 22 22 23 23 24 25 25 25
22 22 22 22 22 22 22 23 24 24 24 25 24 24 24 24 24 24 24 25 24 23 23 23 23 23 23 23 22 22 23 23 23 24 24 24 24 24 25 25 25 25 25
24 25 24 24 24 24 24 24 25 25 26 26 27 27 26 26 26 26 26 25 25 24 24 24 25 24 24 24 24 24 25 25 25 26 26 26 26 26 27 27 26 26 27
27 27 27 27 26 26 27 27 27 27 27 28 28 29 28 28 28 28 28 28 27 26 26 27 26 26 26 26 26 27 27 28 28 28 28 28 28 28 28 28 28 29 29
30 30 30 29 29 28 28 29 29 29 30 30 30 30 29 29 29 29 29 29 28 28 28 28 27 27 27 28 28 28 29 30 30 30 30 30 30 30 30 30 31 31 31
33 33 33 32 32 32 31 31 31 32 32 32 32 32 32 31 31 31 31 31 31 31 30 29 29 29 29 29 29 30 31 32 31 32 32 31 31 31 31 32 32 32 33
34 35 34 34 35 35 34 33 33 34 34 34 34 34 34 33 33 32 32 32 32 31 31 31 30 31 31 32 32 32 32 32 32 32 32 33 33 33 33 33 33 33 33
34 36 36 36 37 37 37 36 36 36 36 36 35 35 35 35 34 34 34 34 33 33 33 32 33 32 33 34 34 34 34 33 34 33 33 33 34 34 34 34 35 35 35
36 37 37 37 38 39 39 38 39 38 37 37 37 37 37 36 35 35 35 35 34 34 34 34 34 35 35 36 36 36 35 35 35 35 35 35 35 35 36 36 35 35 35
38 38 38 38 39 39 39 39 39 39 39 38 38 38 38 37 36 36 36 36 36 35 35 35 35 36 36 37 37 37 36 36 36 36 36 36 36 36 36 35 34 34 35
38 39 39 39 39 39 39 38 38 39 40 39 39 39 39 38 38 38 38 38 36 36 36 36 37 37 38 38 38 38 38 38 37 36 35 35 35 34 34 34 34 34 34
39 39 39 39 40 40 40 40 40 40 40 41 41 41 40 39 38 38 38 38 38 37 36 36 37 37 37 38 38 38 37 36 36 35 35 35 34 35 34 34 33 33 33
39 39 39 40 40 40 40 40 40 40 40 40 40 40 39 37 37 38 38 38 37 37 36 35 35 36 36 37 37 36 36 35 35 35 34 35 35 34 34 33 33 33 33
40 40 40 40 41 40 40 40 39 39 39 39 39 39 39 37 38 39 38 37 36 37 37 36 37 37 37 37 37 37 36 36 36 36 35 35 35 34 33 32 32 32 33
40 40 39 39 39 39 40 39 39 38 37 38 38 39 39 39 38 38 37 37 37 37 37 37 37 37 37 37 36 36 36 35 35 35 35 35 34 33 33 32 32 33 33
40 40 39 39 38 38 38 39 39 39 38 39 39 39 39 39 38 37 37 36 36 35 36 36 37 37 37 37 36 36 36 36 36 36 35 34 33 33 33 33 33 34 34
40 40 40 39 39 38 38 38 39 39 39 39 39 38 37 37 37 37 36 36 36 36 36 36 37 37 37 37 37 36 36 36 36 36 34 33 32 33 33 33 33 33 33
40 40 40 39 38 38 38 38 38 38 38 37 37 36 36 35 35 35 35 35 35 35 35 35 35 36 36 36 36 36 36 36 35 35 34 34 33 33 33 34 33 33 33
40 39 40 39 38 37 37 37 37 36 35 35 36 35 34 34 33 33 32 33 33 33 33 34 35 35 35 35 35 35 35 36 35 35 35 34 34 34 33 34 33 33 33
38 38 38 37 36 36 36 36 35 35 35 35 34 34 34 34 34 34 33 33 33 34 33 33 34 35 35 35 35 35 35 35 35 35 35 35 34 34 33 33 33 33 33
34 35 35 35 35 35 34 34 34 34 33 32 32 31 31 33 33 33 32 32 32 33 33 33 33 34 33 33 34 35 34 34 34 34 34 34 34 34 34 34 33 34 33
32 32 33 34 33 33 32 32 31 31 31 31 31 32 33 32 31 32 33 33 33 34 34 34 33 33 34 34 34 34 34 33 33 34 34 34 33 34 34 33 33 33 33
30 30 31 32 32 31 31 31 30 30 29 29 30 31 32 31 31 32 33 33 33 33 33 33 33 33 33 33 33 33 33 34 34 35 35 34 34 33 33 33 32 32 31
28 28 29 29 29 29 29 30 29 29 29 30 30 30 31 31 31 32 32 32 32 32 31 31 31 32 32 32 32 33 33 33 34 34 35 34 33 33 33 33 32 31 31
27 28 28 28 29 29 29 29 29 29 29 29 29 30 31 31 30 30 30 30 30 30 30 31 31 31 32 32 32 31 31 32 32 32 33 33 33 33 33 32 32 31 30

GEFSGL_500_meanwind_264.txt.gz
Wind_Speed
18 18 18 18 18 18 18 18 18 18 19 20 20 20 20 20 20 20 20 20 20 21 21 21 21 21 21 21 21 21 21 20 20 20 20 19 20 20 20 20 20 21 21
19 20 20 21 21 20 20 20 20 20 20 21 21 22 23 23 23 22 22 22 23 23 23 23 23 23 23 23 22 22 22 22 22 21 22 22 22 22 23 23 23 24 24
22 22 22 23 22 22 23 23 22 22 22 23 23 23 23 24 25 25 25 25 25 25 25 25 24 24 24 24 24 24 23 23 23 23 23 23 24 24 25 25 26 26 26
24 24 24 24 24 25 25 25 25 24 24 24 24 24 25 25 26 26 27 27 27 27 27 26 26 26 26 25 25 25 25 25 25 25 25 25 25 26 27 27 27 28 28
27 27 27 27 27 28 28 28 28 27 27 27 27 26 27 27 27 28 28 28 28 28 28 28 28 27 27 27 27 27 27 27 28 27 27 27 27 27 28 28 29 29 30
28 29 30 30 30 31 31 31 31 31 30 30 29 28 29 29 29 29 30 30 30 29 29 29 29 28 28 28 29 29 29 28 28 28 27 28 28 29 30 30 30 30 30
32 32 32 33 33 33 33 33 33 33 32 32 31 30 31 31 31 31 31 31 31 31 31 30 30 30 30 30 30 30 30 29 29 29 29 29 30 30 31 31 31 32 32
34 34 34 35 35 35 36 35 35 35 35 34 33 33 33 33 33 33 32 33 33 32 32 32 32 32 32 32 32 31 31 31 32 31 31 31 32 32 32 33 34 34 34
35 35 35 36 36 36 36 37 37 37 36 35 35 35 35 35 34 33 34 34 34 34 33 34 34 33 33 34 33 33 32 33 33 33 33 33 33 34 34 34 35 35 34
37 37 36 36 36 36 37 38 38 38 38 38 37 36 36 36 36 36 36 35 35 34 34 34 34 34 35 34 34 34 34 34 34 34 34 34 34 34 34 35 35 35 34
38 38 38 37 37 37 37 38 39 39 39 39 39 38 38 38 38 38 37 37 36 36 35 35 35 35 36 36 36 36 35 35 35 35 35 34 33 34 34 34 35 35 34
39 39 39 39 38 38 39 40 40 40 40 40 40 39 40 40 39 39 39 38 38 38 37 37 37 37 37 37 37 37 36 36 36 35 34 34 34 34 35 35 34 34 34
41 40 39 40 40 40 41 41 41 41 42 41 41 40 39 39 39 40 40 39 39 39 39 39 39 38 37 37 37 37 36 36 36 36 35 34 34 34 34 34 33 33 32
42 42 42 42 42 42 42 42 42 42 42 41 41 40 40 40 39 39 39 40 40 40 40 39 38 38 38 37 37 36 36 36 36 35 34 34 34 34 33 33 33 33 33
43 43 43 44 43 43 43 42 42 41 41 41 40 39 39 39 39 40 40 40 40 40 39 38 37 37 38 37 37 37 36 36 36 35 35 35 34 34 33 33 33 33 32
44 44 44 44 44 44 43 42 42 42 41 40 40 39 39 39 39 38 37 38 38 38 38 37 37 37 37 37 37 36 36 36 37 36 35 35 34 34 34 34 33 33 32
45 45 45 44 44 44 43 43 42 41 40 39 39 38 39 38 38 37 36 36 37 37 37 37 37 36 36 35 35 35 35 35 35 35 34 34 34 34 34 34 33 32 32
45 45 45 44 44 43 43 42 41 40 40 40 39 38 38 37 37 36 36 36 35 35 36 36 35 34 33 34 34 34 34 33 34 34 33 33 34 35 34 33 33 32 32
45 46 45 44 43 43 42 41 40 40 40 40 39 38 37 37 36 36 35 35 34 34 33 32 32 32 32 33 33 33 32 32 33 33 33 33 33 33 33 32 32 32 32
44 44 44 43 43 41 40 39 39 39 40 40 39 38 37 37 36 36 34 34 33 32 31 31 31 31 32 32 32 32 32 33 33 33 32 32 32 32 32 32 31 31 31
40 40 40 40 40 38 37 37 38 38 38 38 37 37 37 37 36 35 33 33 32 31 31 31 31 31 31 30 31 31 32 32 33 33 32 32 32 32 31 31 32 32 31
38 38 38 38 38 37 36 36 36 36 36 36 36 35 35 35 35 34 33 32 32 32 31 30 31 31 30 30 31 32 32 32 32 32 32 32 32 31 31 31 31 32 32
35 36 36 36 36 36 36 36 36 37 36 36 35 34 34 34 33 32 32 32 32 32 31 31 30 30 29 30 31 32 32 32 32 31 32 31 30 30 30 30 30 30 30
33 33 33 33 34 34 35 35 34 35 34 33 34 34 33 32 31 31 30 30 31 31 31 31 31 31 31 31 31 31 31 31 31 31 30 30 29 29 30 30 30 30 30
30 30 30 31 32 33 32 32 32 32 32 31 30 30 29 29 29 30 30 30 30 30 31 31 31 32 32 32 32 32 31 31 31 31 30 29 29 30 30 29 30 30 30
28 28 28 29 29 30 30 29 29 29 29 29 29 28 28 29 29 29 29 30 30 30 30 31 31 32 32 32 31 31 31 31 31 31 31 30 30 30 30 30 29 29 29

GEFSGL_500_meanwind_270.txt.gz
Wind_Speed
14 15 15 16 16 16 16 16 16 16 16 17 16 16 17 18 18 18 18 17 18 19 19 20 20 20 20 20 20 20 19 18 18 18 18 19 21 21 22 21 21 21 21
17 18 17 17 18 18 18 17 18 18 19 20 19 19 19 20 20 21 21 21 21 21 22 22 22 22 22 22 21 21 21 20 19 19 20 20 21 22 22 23 23 23 23
19 20 20 20 20 20 20 20 21 21 22 22 22 22 22 22 23 23 23 23 23 23 24 24 23 23 23 23 22 22 22 22 21 22 22 21 22 22 23 24 24 24 25
22 23 23 23 23 23 23 24 24 23 23 24 24 25 25 25 25 25 26 25 26 26 26 26 25 25 24 24 24 24 24 24 23 23 24 24 24 24 24 24 25 25 26
25 25 25 25 26 26 26 27 26 26 26 27 27 27 27 27 27 27 27 27 28 29 28 28 28 27 26 25 25 25 25 25 25 25 25 25 25 25 25 25 26 26 26
27 27 27 28 28 29 29 29 29 29 29 29 29 29 30 30 30 29 29 29 29 29 29 29 28 28 27 27 26 26 26 26 26 27 27 27 27 27 27 27 27 27 27
29 29 29 30 31 31 31 31 32 31 31 31 32 32 32 32 31 31 31 30 30 29 29 29 29 28 28 29 29 28 28 29 29 29 29 29 29 29 29 29 29 29 29
32 32 33 33 32 32 33 33 32 33 32 33 33 33 32 32 32 32 32 31 30 29 29 29 29 28 29 29 29 29 29 29 29 30 31 31 30 31 31 31 31 30 31
34 34 34 34 33 34 34 34 34 34 33 33 33 33 34 34 34 33 33 32 32 31 30 30 30 30 31 31 30 30 30 30 30 31 31 32 32 32 32 32 32 32 32
36 35 35 35 35 35 35 35 36 35 35 35 35 34 34 35 34 34 34 33 33 32 32 32 31 32 32 32 31 31 31 31 32 32 32 32 32 33 32 32 32 32 32
37 36 37 37 36 36 36 37 37 37 37 36 36 36 36 36 37 36 36 35 34 34 34 34 33 33 33 32 32 32 32 32 33 33 33 32 32 32 32 32 32 33 33
39 38 38 39 39 38 39 39 39 38 38 37 38 38 38 38 38 38 37 37 36 36 35 35 34 34 34 33 33 33 33 33 34 34 34 33 33 33 33 33 33 33 33
40 40 40 39 40 40 40 40 40 39 38 38 39 39 39 39 38 38 37 37 37 36 36 36 36 35 35 35 34 34 34 35 34 34 34 34 33 33 33 33 33 33 33
41 41 41 41 41 42 42 42 41 41 41 40 39 39 39 39 38 38 38 37 37 36 36 37 37 36 36 35 35 35 35 35 34 33 33 34 33 33 33 33 33 33 33
42 42 42 42 42 43 43 44 43 43 43 42 41 40 39 38 38 38 38 38 37 37 37 37 37 37 36 36 36 36 35 34 34 33 33 33 32 32 33 33 33 33 33
42 42 42 42 43 43 43 43 43 43 42 42 42 41 39 39 39 39 39 38 37 37 37 36 36 36 36 36 36 35 34 34 34 33 33 33 33 33 33 34 33 33 32
43 43 43 43 43 43 43 43 43 43 43 42 41 40 40 40 39 38 37 37 37 36 36 36 36 35 34 34 33 34 33 33 33 32 33 33 34 34 34 33 33 33 32
43 43 43 43 43 43 43 43 43 42 42 42 41 40 39 38 38 37 37 36 35 35 34 34 33 33 33 33 32 31 32 32 31 30 31 32 32 32 32 31 31 31 31
42 42 42 43 42 42 42 42 41 41 42 42 41 41 38 37 37 37 36 35 34 34 33 32 32 32 33 33 32 31 31 30 29 29 30 31 31 31 30 30 31 31 31
41 42 42 42 42 42 42 41 41 40 40 40 40 38 37 36 36 35 35 34 34 34 32 32 32 32 32 32 30 30 31 31 30 30 30 30 30 30 31 30 30 30 30
40 40 40 40 40 40 40 39 38 37 37 37 37 37 36 35 35 34 34 34 34 34 33 32 32 31 31 31 31 31 31 31 30 30 29 29 29 29 29 30 30 30 30
38 38 38 37 37 36 36 36 36 35 35 34 34 34 34 33 33 33 33 33 32 32 32 32 32 31 32 31 30 30 30 30 29 29 29 28 28 28 28 28 28 28 29
35 35 35 35 35 35 34 33 33 33 32 32 31 31 31 31 31 31 31 31 31 31 31 32 32 31 31 31 31 31 30 29 29 30 29 28 28 28 28 28 28 28 28
33 32 32 33 33 32 32 31 30 30 30 30 30 29 30 30 30 30 29 30 30 30 30 30 30 31 31 31 31 31 31 30 30 30 29 29 29 28 28 28 27 28 28
30 30 30 29 28 28 28 27 27 27 27 28 28 28 27 28 28 28 28 28 29 28 29 29 30 29 29 29 30 30 30 29 29 29 29 29 29 28 28 28 28 29 29
29 29 28 27 27 26 25 25 25 25 25 26 26 26 27 27 27 27 27 27 27 27 27 27 27 27 28 30 30 29 29 29 29 29 29 29 29 29 30 30 30 30 29

GEFSGL_500_meanwind_276.txt.gz
Wind_Speed
13 14 14 15 16 16 17 18 19 20 20 20 21 22 22 22 23 22 22 21 22 22 22 23 23 22 22 22 22 22 22 22 22 23 23 23 23 23 23 23 23 23 23
16 16 17 18 18 19 20 21 22 23 23 24 24 25 25 24 25 25 24 24 24 24 25 25 25 25 24 24 24 24 24 24 24 25 26 26 25 25 25 25 25 25 25
19 19 19 20 21 21 22 23 24 25 26 27 27 27 27 27 27 27 27 27 27 27 27 28 27 28 27 26 26 26 26 26 26 26 26 26 26 26 26 26 26 26 27
21 21 22 22 23 23 24 25 26 27 28 28 28 28 28 28 29 29 29 29 29 29 29 29 28 29 28 28 28 27 27 27 27 27 27 27 27 26 27 27 27 28 28
23 23 23 24 24 25 26 27 28 28 29 30 30 31 31 31 31 31 31 30 30 30 30 30 30 30 30 29 29 28 28 28 28 28 28 29 29 29 28 28 28 29 29
26 27 26 26 26 27 28 29 30 31 31 32 31 32 33 34 34 33 32 32 31 31 31 31 32 32 32 31 31 31 30 30 30 30 29 30 30 30 30 30 30 30 30
29 30 30 30 30 30 30 31 32 32 33 33 33 33 34 34 34 34 34 33 33 33 32 33 33 33 33 33 32 32 32 32 32 31 31 31 31 32 32 32 32 32 32
32 32 33 32 33 33 34 34 35 34 34 34 34 35 35 35 35 36 36 36 36 35 35 35 35 34 34 34 34 33 32 33 33 33 32 32 32 33 33 33 33 33 33
35 35 35 35 35 35 36 36 36 36 36 35 36 36 36 36 37 37 38 38 38 38 37 35 34 34 33 34 34 33 34 35 35 34 33 32 32 33 34 34 34 34 34
36 36 36 37 38 38 38 38 37 37 36 36 36 37 37 37 38 39 39 39 39 39 39 37 36 36 36 35 34 34 34 35 35 34 33 33 33 34 35 35 35 35 35
37 37 38 39 40 40 40 40 38 38 38 38 37 37 37 37 38 39 40 40 40 40 40 39 38 38 37 36 35 35 35 35 35 35 35 35 35 35 35 35 35 35 35
38 39 39 40 41 40 40 39 39 39 39 39 38 38 38 39 39 39 40 41 41 41 40 40 40 39 38 38 37 37 37 36 36 36 36 36 36 35 35 35 35 35 35
38 38 38 39 39 39 40 40 39 39 39 39 40 40 40 39 39 39 40 40 41 41 41 41 41 40 40 39 39 38 38 38 37 37 37 36 36 36 35 35 34 34 35
39 39 39 39 39 39 39 39 39 39 39 40 40 41 40 40 40 39 39 40 41 41 41 40 40 40 40 40 40 39 39 39 38 38 37 37 36 35 34 34 34 34 34
39 39 40 39 39 40 40 40 40 40 40 40 40 40 41 40 40 40 41 40 41 41 41 40 40 39 39 39 39 39 39 39 38 38 38 37 36 35 34 34 34 34 34
40 40 40 40 40 40 40 40 40 40 41 41 41 40 40 40 40 40 40 40 40 40 40 40 40 40 40 39 39 38 38 37 37 37 37 37 36 34 34 33 34 34 33
40 40 40 39 39 39 39 39 39 40 40 41 41 41 40 40 40 41 41 40 40 40 40 40 40 39 39 39 38 36 36 37 36 36 35 35 35 34 34 34 34 33 33
40 40 40 40 40 40 39 39 39 39 39 40 41 41 41 40 40 39 39 40 40 40 40 38 38 38 38 37 37 36 36 36 36 35 35 34 34 33 33 33 33 33 32
41 41 41 41 41 40 40 40 39 39 40 40 40 40 40 39 39 38 38 39 39 39 38 37 37 36 36 36 36 36 36 36 35 35 34 34 33 33 32 32 32 32 32
40 41 41 41 41 40 39 39 39 39 38 38 38 37 37 37 37 37 37 36 35 35 36 36 36 35 35 35 35 35 35 36 36 35 35 34 33 32 32 31 31 31 31
40 40 40 40 40 39 38 37 37 37 36 36 35 34 34 34 34 34 34 34 33 33 33 33 33 33 34 33 34 35 35 35 35 35 34 33 33 32 32 32 32 32 32
39 38 38 38 38 38 37 36 36 36 36 34 33 32 32 32 31 31 31 30 30 30 30 30 31 31 32 33 34 34 34 34 34 34 34 33 33 32 33 33 33 32 31
38 37 36 36 36 36 35 35 35 35 34 32 31 31 30 30 29 30 30 30 30 30 29 29 30 30 31 32 32 33 33 33 33 34 33 33 33 32 32 33 32 32 31
35 35 34 34 35 35 35 34 34 33 32 31 31 31 30 30 30 30 30 29 29 29 28 29 29 29 30 31 32 33 33 33 32 32 33 33 31 31 32 32 32 31 31
32 33 33 32 33 32 32 32 32 31 30 30 31 31 30 30 30 30 30 29 29 28 28 29 29 29 30 31 32 32 32 32 32 32 31 32 32 32 32 32 31 31 31
31 31 31 31 31 30 30 30 29 29 29 29 30 30 30 29 30 30 29 28 28 28 28 29 29 30 29 29 30 30 30 30 30 31 31 31 32 32 31 31 31 31 31

GEFSGL_500_meanwind_282.txt.gz
Wind_Speed
18 18 17 16 16 16 18 19 19 20 21 21 21 22 23 23 23 23 23 23 22 22 22 23 23 23 23 23 23 23 23 23 23 23 23 23 24 24 24 24 23 23 24
18 19 18 18 18 18 19 20 20 21 22 23 24 24 24 25 25 26 25 25 24 24 24 24 25 25 25 25 25 26 26 26 26 26 25 25 25 25 25 25 25 25 26
20 20 20 21 21 20 21 21 22 23 24 25 26 26 27 27 28 28 28 28 28 27 27 27 27 27 27 27 27 27 28 28 28 27 27 27 26 26 26 26 27 26 27
23 24 23 24 24 24 24 24 25 25 26 27 28 28 29 30 30 30 30 30 30 30 29 29 29 29 29 29 29 29 29 28 28 28 28 28 27 27 27 27 27 28 29
25 25 25 25 26 26 26 27 27 28 28 29 29 30 31 32 32 32 32 32 32 32 31 31 31 31 30 30 30 30 30 30 29 30 30 30 29 28 28 28 28 29 30
26 27 28 28 28 29 29 29 30 31 31 32 32 32 32 33 33 33 33 33 34 33 33 33 32 32 31 31 31 31 31 31 31 31 31 31 30 30 30 30 30 30 31
28 29 30 30 31 31 32 32 32 33 34 35 35 35 34 35 35 35 35 35 35 35 35 35 35 34 34 33 32 32 32 31 31 31 30 30 30 31 32 31 31 32 32
31 32 32 33 33 34 34 34 35 35 36 36 37 37 37 36 36 36 36 36 35 36 37 37 37 36 35 34 33 33 33 33 32 32 31 32 32 32 33 33 33 33 33
33 34 34 35 35 35 35 36 36 36 37 37 37 37 37 37 37 37 37 38 39 38 38 38 38 37 37 35 34 34 34 34 34 34 33 34 34 34 34 34 34 34 34
34 35 36 36 36 35 36 37 37 37 37 38 38 38 38 37 37 38 38 39 40 39 39 38 38 37 37 36 36 36 36 36 36 35 35 35 35 35 35 35 35 35 35
36 37 37 36 36 36 37 37 37 37 37 37 38 38 38 38 38 38 39 40 39 39 38 38 38 39 39 39 38 38 38 38 38 38 37 37 37 36 36 35 34 35 35
37 37 37 37 37 38 37 38 38 39 39 38 38 38 38 39 39 40 40 40 40 39 39 39 39 39 39 40 40 40 40 40 40 40 39 39 39 38 37 36 36 35 35
37 37 37 37 38 39 39 38 39 40 39 39 39 39 38 39 40 40 40 40 40 40 40 40 40 39 40 40 40 40 41 42 41 41 40 40 39 39 37 37 36 36 35
37 37 38 39 39 39 39 39 39 39 39 39 39 38 38 39 39 39 39 38 39 40 40 40 40 40 40 40 40 40 40 40 40 40 40 40 40 39 38 37 36 35 35
38 38 38 38 37 38 38 38 39 39 39 39 39 39 39 39 39 38 38 38 38 39 39 40 40 41 40 40 39 39 39 38 38 38 38 38 39 38 38 37 36 36 34
39 39 38 38 39 39 39 38 39 39 39 39 39 39 38 38 38 38 38 38 38 38 39 39 40 40 40 39 39 38 37 36 36 36 36 37 37 37 36 36 36 35 34
38 38 38 38 39 39 39 39 39 39 39 39 38 38 38 38 37 36 36 37 37 37 37 38 38 37 37 38 37 35 35 35 35 35 35 35 35 35 35 35 35 34 33
38 38 38 38 38 39 39 39 39 40 39 39 38 38 38 37 36 35 36 36 36 36 36 35 35 35 36 36 35 34 34 34 33 34 34 34 34 34 34 33 33 33 33
37 37 37 38 39 39 39 40 40 39 39 38 38 37 36 35 35 36 36 35 34 34 34 34 34 34 34 35 34 34 33 33 33 33 32 32 32 32 32 32 32 33 33
36 36 37 38 39 39 39 39 38 37 37 37 37 36 36 35 35 35 35 33 32 32 32 32 33 32 32 33 32 32 32 33 33 33 32 32 31 31 31 32 32 32 32
35 36 37 37 37 37 37 37 36 35 35 34 34 34 34 34 33 33 32 32 31 31 31 31 32 31 31 30 31 32 32 33 32 33 33 32 32 32 31 31 31 32 32
35 36 36 36 36 36 36 35 35 35 34 34 33 33 33 33 32 32 32 31 30 30 30 30 30 30 30 31 31 31 31 31 32 31 32 32 32 31 31 31 31 32 32
35 35 35 35 35 35 35 35 34 34 33 32 32 31 31 31 31 31 30 30 29 29 29 29 29 30 30 30 30 30 31 31 31 31 31 32 32 31 31 31 31 32 31
34 34 34 34 34 34 34 33 33 32 32 31 31 31 30 30 29 29 29 29 28 29 29 29 29 29 29 29 30 30 30 30 30 30 30 30 31 31 32 32 32 32 31
32 32 32 32 32 32 32 32 32 31 30 30 30 30 29 29 29 29 28 28 29 28 28 28 29 29 28 29 29 29 29 30 30 30 30 30 31 32 32 32 32 31 31
31 31 31 31 30 30 30 30 30 30 29 29 28 29 29 29 28 28 28 28 28 28 28 28 28 28 28 28 29 29 29 29 29 30 30 30 30 30 30 31 31 32 32

GEFSGL_500_meanwind_288.txt.gz
Wind_Speed
17 17 18 18 19 20 20 19 20 20 20 20 20 20 21 21 22 23 23 24 24 24 25 25 24 24 24 24 25 25 25 25 24 24 23 24 24 23 24 23 23 22 23
18 19 19 19 21 21 21 21 21 21 21 22 22 23 24 24 24 25 26 26 25 25 26 26 25 26 25 26 26 26 26 26 25 25 25 25 26 26 25 24 24 24 23
20 20 21 21 22 22 22 22 23 23 24 25 25 26 26 26 26 27 27 27 27 27 27 27 28 27 26 26 27 27 27 27 27 27 26 26 26 26 25 26 26 26 25
22 23 23 23 23 23 24 25 25 25 25 26 27 28 29 29 29 28 28 28 28 28 29 29 28 28 27 27 27 28 28 28 28 28 28 27 27 27 27 27 27 27 26
25 25 24 24 24 25 25 26 26 27 28 29 29 30 30 30 30 30 30 30 30 30 30 30 30 30 30 30 29 28 28 28 28 29 28 28 28 28 27 27 28 28 28
27 27 27 27 27 27 28 28 28 29 30 31 31 30 30 30 31 31 31 31 31 32 33 33 33 33 32 32 31 31 30 30 30 30 30 29 28 29 29 29 29 29 29
30 29 29 29 29 30 31 31 32 32 32 33 32 31 31 31 32 32 33 33 32 33 33 33 34 34 34 34 33 33 32 32 32 32 32 31 30 31 32 32 31 31 30
32 33 32 32 32 33 33 34 34 34 35 35 34 34 33 33 33 34 34 34 34 34 34 34 35 35 35 35 35 34 34 34 34 34 33 33 34 34 34 33 32 32 32
34 35 35 34 34 35 35 35 35 36 36 36 35 35 36 35 35 35 35 35 35 35 36 36 37 37 36 36 36 36 35 35 35 35 35 34 34 35 35 35 34 34 34
35 36 37 37 37 37 37 37 37 37 38 37 37 37 37 37 37 36 36 37 37 37 37 37 37 37 37 37 38 38 38 37 37 36 35 35 35 34 35 35 36 36 35
37 37 38 38 38 38 38 39 39 38 38 38 37 38 38 38 37 37 37 37 38 38 37 37 37 38 38 38 38 39 39 38 37 37 37 36 36 35 35 35 36 36 36
38 38 38 39 39 39 40 40 40 40 39 38 38 38 38 39 39 39 39 39 39 39 38 38 38 39 39 38 38 38 38 38 38 38 37 37 36 36 36 35 35 35 35
39 39 39 40 40 41 42 42 40 40 39 39 39 38 39 39 40 40 39 38 38 39 38 37 38 39 39 38 38 37 37 38 38 37 37 36 36 36 36 35 35 34 34
39 40 40 41 41 41 41 41 41 41 41 41 39 39 39 39 39 39 39 39 39 39 38 37 37 38 38 38 38 38 38 38 38 38 38 37 37 36 35 35 34 34 33
40 40 40 41 41 40 41 41 41 42 42 40 39 39 39 39 39 39 38 38 38 38 38 38 37 36 37 37 37 37 37 37 37 38 38 38 37 36 35 34 34 33 32
40 40 41 41 41 40 40 40 40 40 40 39 39 39 39 39 39 39 38 38 38 37 37 37 36 35 36 36 35 35 35 36 37 37 37 37 36 36 34 33 33 32 31
40 40 40 40 39 38 39 40 40 39 38 38 39 39 39 39 39 39 37 37 37 36 36 36 36 35 35 35 35 35 35 36 36 36 36 35 35 34 34 33 31 31 31
38 38 39 38 38 38 38 38 38 38 38 38 38 39 39 39 39 38 37 36 35 35 35 35 34 34 35 34 33 33 34 35 35 35 34 33 33 33 32 32 31 31 31
37 37 37 38 38 38 37 37 38 38 38 38 38 38 38 37 37 37 36 35 35 35 35 35 34 34 33 33 33 33 33 33 34 34 34 33 33 32 32 32 32 31 31
37 37 37 37 37 36 36 37 37 37 37 37 37 37 37 36 35 35 35 34 34 34 34 34 34 34 33 33 32 32 32 32 32 33 33 33 33 33 32 32 32 31 30
37 36 36 35 35 35 35 36 36 36 36 37 36 36 36 35 34 34 34 33 33 33 33 34 34 34 34 34 33 32 32 31 31 31 32 32 32 32 31 30 31 31 31
36 36 35 34 34 35 35 35 35 36 36 36 36 35 35 34 34 34 34 33 33 32 32 33 32 32 32 32 32 32 31 31 31 31 31 31 30 30 30 30 30 30 30
35 35 34 34 34 34 34 35 35 35 35 35 35 34 34 33 33 33 33 32 32 32 32 32 32 31 31 31 31 31 31 31 31 30 30 30 30 30 30 30 31 31 31
33 33 33 33 34 34 34 34 34 34 34 34 34 33 32 32 32 32 32 31 31 31 31 31 31 31 31 30 31 31 31 31 31 31 31 30 30 30 30 30 31 31 30
31 31 31 32 32 32 33 33 33 33 33 32 32 32 32 31 31 31 30 30 30 30 30 30 30 30 30 30 30 30 30 30 30 30 30 29 29 29 29 29 28 28 28
31 30 31 31 32 32 33 33 33 33 32 31 32 32 32 31 31 30 30 29 29 29 30 30 30 30 30 30 30 30 30 30 30 29 29 28 27 27 28 28 27 27 26

GEFSGL_500_meanwind_294.txt.gz
Wind_Speed
13 13 14 14 15 15 15 15 16 17 17 17 17 18 18 19 19 19 19 19 20 21 22 22 23 24 23 24 24 24 23 23 23 23 24 24 24 25 25 25 24 23 23
15 15 16 16 17 17 17 18 18 18 18 19 19 20 21 21 22 21 21 22 22 23 23 23 23 24 24 25 25 25 25 24 24 24 24 25 24 24 24 24 24 24 25
17 18 18 19 19 19 19 20 21 20 20 21 21 21 22 24 24 24 24 24 25 25 26 25 25 26 26 26 26 26 26 25 25 24 24 24 24 24 24 24 24 24 25
19 20 20 21 21 22 22 22 22 22 23 24 23 23 24 25 25 26 26 26 27 27 27 27 28 28 28 28 27 27 27 26 26 25 24 25 25 25 25 24 24 26 26
22 22 23 23 24 24 24 24 24 25 25 25 26 26 27 27 27 28 28 29 29 29 29 29 29 29 29 29 29 29 28 28 27 26 26 26 26 26 26 25 25 26 26
23 24 24 25 25 25 26 26 27 27 27 28 28 28 29 30 30 31 31 30 30 30 29 29 30 30 30 30 30 30 30 30 29 29 28 28 28 27 27 27 27 27 27
24 25 26 26 27 28 28 28 28 29 30 30 30 31 31 32 32 33 33 32 31 31 31 30 30 30 30 31 31 31 31 31 31 31 30 30 30 29 29 29 29 29 28
25 26 26 27 28 29 29 29 30 31 30 31 32 33 34 34 34 33 33 33 32 32 32 32 32 31 32 32 33 33 32 33 33 33 33 32 32 32 31 31 31 31 30
27 28 28 29 29 30 31 31 32 32 32 33 34 35 35 35 35 35 34 34 34 34 33 33 32 32 33 33 33 34 34 34 35 35 35 34 34 34 34 33 33 33 32
30 30 30 30 31 31 32 32 33 34 34 34 34 35 36 36 36 35 35 35 35 35 35 34 34 34 35 35 35 34 34 35 35 35 35 36 36 35 35 34 33 33 32
32 32 32 33 33 33 33 34 34 35 35 35 35 36 36 36 36 36 35 34 35 35 35 36 36 36 36 36 36 36 36 36 36 35 35 35 35 35 34 34 34 34 33
34 34 34 35 35 35 36 36 36 36 37 37 37 36 37 37 37 36 36 35 36 36 36 36 36 36 36 36 36 36 36 36 35 35 35 35 35 35 35 34 33 33 33
35 35 36 36 36 36 37 37 37 38 38 37 37 37 38 38 38 37 36 36 36 36 36 36 36 35 36 36 36 36 36 36 35 35 35 35 35 35 34 34 33 33 33
35 35 35 36 36 36 36 37 37 37 37 37 37 37 38 37 37 37 36 36 36 36 36 36 36 36 35 35 35 36 36 35 35 35 35 35 35 34 34 34 34 34 34
35 35 35 36 35 35 35 36 36 37 37 37 37 37 37 37 36 36 35 35 36 36 36 36 36 36 35 35 35 35 35 34 34 34 34 34 34 34 34 34 34 34 34
35 35 35 36 36 36 35 35 35 35 36 36 36 36 36 37 36 35 35 35 36 36 36 36 36 35 35 35 35 34 33 33 33 33 33 33 34 34 34 34 34 34 34
36 36 35 36 36 36 36 35 35 35 35 35 35 36 36 36 36 35 35 35 35 35 35 35 34 34 34 34 34 33 33 33 33 33 33 33 33 33 32 32 33 33 33
36 36 35 35 35 35 35 35 35 34 35 35 35 35 36 36 35 35 35 35 35 34 34 34 33 33 33 33 32 32 32 32 32 32 32 33 33 32 32 32 33 33 32
35 35 35 34 34 34 34 34 34 34 34 34 34 35 35 35 34 34 35 35 35 34 33 33 33 32 32 31 31 31 31 31 31 32 32 31 31 30 31 32 32 31 31
34 35 35 35 35 35 35 34 34 34 34 34 34 34 34 34 34 34 34 35 34 34 33 33 32 32 32 31 31 31 30 30 30 31 31 30 29 29 29 30 29 29 29
34 33 33 33 33 33 33 33 33 34 34 33 33 33 33 33 33 34 34 34 33 33 32 32 32 31 31 31 31 30 30 30 30 30 30 29 29 29 29 29 29 29 29
32 32 32 32 32 32 32 32 32 31 31 32 32 32 33 33 33 33 33 32 32 31 30 30 29 29 30 30 29 28 28 28 28 28 29 29 29 28 28 29 29 29 29
32 32 31 31 32 32 32 32 31 31 31 31 31 32 32 32 32 32 32 32 31 30 29 29 29 29 29 29 29 28 28 28 27 28 28 28 27 27 28 28 28 27 27
31 31 31 31 32 32 31 30 30 30 31 31 32 32 32 32 32 32 32 31 30 30 29 30 29 29 28 29 29 28 28 28 28 28 28 27 27 27 27 27 27 26 26
30 30 31 31 32 32 31 31 31 31 31 31 31 32 32 32 32 31 31 31 31 31 30 30 30 29 29 29 28 28 28 28 28 28 28 28 27 26 26 26 26 26 25
30 30 31 32 32 31 31 31 31 30 30 31 31 31 31 32 32 32 31 31 30 30 30 31 31 30 30 30 29 28 28 28 28 28 28 27 27 26 26 26 26 26 26

GEFSGL_500_meanwind_300.txt.gz
Wind_Speed
13 12 13 14 15 15 16 16 16 17 17 18 18 19 19 20 20 20 21 21 21 22 22 22 23 23 24 25 25 24 24 24 24 24 25 25 25 25 25 25 25 26 26
15 16 16 16 17 17 17 18 18 19 19 20 20 20 21 21 21 21 22 22 22 22 23 24 25 25 26 26 25 25 25 26 25 24 25 25 24 25 25 25 26 26 26
18 18 18 18 18 19 19 20 20 21 20 21 22 22 22 23 23 23 23 24 24 25 26 26 27 27 26 26 26 26 26 26 26 25 25 25 25 26 26 26 26 26 26
20 20 20 20 20 21 21 22 22 22 23 23 24 24 24 24 24 24 25 26 26 27 28 27 28 28 28 28 28 28 27 27 27 26 26 26 27 27 27 27 27 27 27
21 21 22 23 24 23 23 24 24 25 25 26 26 26 26 26 26 27 27 27 28 29 30 30 30 30 29 30 30 29 29 28 28 28 27 27 28 28 28 28 28 28 28
23 23 24 25 26 26 26 26 26 27 28 28 28 27 28 28 29 29 29 29 30 30 30 30 30 30 30 30 30 30 30 30 29 29 29 29 29 29 29 29 29 29 29
24 25 25 26 27 27 27 28 29 30 30 30 30 29 30 30 31 31 31 31 31 31 31 31 31 31 31 31 31 31 30 30 30 30 30 30 30 31 31 31 30 30 30
25 26 27 27 28 29 29 30 31 31 31 31 31 31 32 32 32 32 32 33 32 32 32 33 33 32 32 32 32 32 32 31 31 31 31 31 31 32 32 32 32 32 32
27 28 28 29 29 30 31 31 32 33 32 32 32 32 33 33 33 33 33 33 33 33 33 34 33 33 32 32 32 32 33 32 32 33 32 32 32 33 33 33 33 33 33
29 30 30 30 30 31 32 32 33 33 33 32 33 34 34 34 34 34 34 33 33 33 34 33 33 33 33 34 33 33 33 32 33 33 33 33 33 33 34 34 34 34 34
31 31 31 31 32 32 32 32 32 32 32 33 33 34 34 34 34 34 34 34 34 34 35 34 34 34 34 34 33 33 33 33 33 33 33 33 33 34 34 33 34 34 34
33 33 33 32 32 34 34 34 33 33 33 33 33 33 34 35 35 35 35 36 36 36 36 35 34 34 34 34 34 33 33 33 34 34 34 35 34 34 35 35 35 34 34
35 35 35 34 34 35 35 35 34 34 34 35 35 35 36 36 36 37 36 36 36 37 36 36 36 35 35 35 34 34 34 34 34 34 34 35 35 36 36 35 35 35 34
36 36 36 35 36 36 36 37 37 35 35 35 36 36 36 37 37 37 37 37 37 37 37 37 36 36 35 35 35 35 34 34 34 34 34 34 34 35 35 35 35 34 34
37 37 36 35 35 35 36 36 35 35 35 36 36 36 37 37 37 37 37 37 36 36 35 35 35 35 35 35 35 34 34 34 34 34 34 34 34 34 34 34 33 33 33
37 37 35 35 36 36 35 35 35 35 35 36 36 36 37 36 36 36 36 35 35 34 34 34 34 34 34 34 34 34 33 33 33 34 34 34 34 34 34 34 34 34 34
37 36 35 35 35 35 35 35 35 35 35 36 36 36 36 35 35 35 35 34 34 34 33 33 33 33 33 34 34 33 33 33 33 34 34 34 34 34 34 34 34 34 33
36 36 36 36 35 35 34 34 34 34 34 34 35 35 34 34 34 34 34 35 35 34 34 33 33 33 33 33 33 33 33 33 33 33 34 33 34 34 34 34 34 34 33
35 35 35 35 34 34 33 33 33 34 34 34 34 34 35 35 35 35 35 35 35 34 34 34 33 33 32 32 32 32 32 32 32 32 32 32 33 33 33 33 33 33 33
34 33 33 34 33 32 32 32 33 34 34 34 35 35 35 35 36 36 35 35 35 34 34 33 33 32 32 32 32 32 32 31 31 31 30 31 31 32 31 31 31 31 30
33 33 33 33 33 33 33 33 33 34 35 35 35 35 35 35 35 34 33 33 33 33 33 33 32 32 31 31 31 31 31 31 31 31 31 30 30 30 30 30 29 28 28
33 32 33 33 33 33 33 34 34 34 34 33 34 34 34 33 32 32 32 32 32 33 33 33 32 32 31 30 30 30 30 30 30 29 29 29 29 29 29 28 28 27 27
31 32 32 33 33 33 33 33 33 33 33 32 32 32 33 32 32 32 32 33 33 33 33 32 32 31 30 30 30 30 30 30 29 29 29 29 29 28 27 27 26 26 26
31 31 31 32 33 33 33 34 34 33 33 33 33 33 32 32 32 32 32 32 32 32 32 32 31 31 30 30 30 31 31 30 30 29 29 28 28 27 27 26 26 26 26
30 30 31 31 32 33 33 33 32 33 33 33 33 33 33 33 33 33 32 32 32 32 32 31 31 31 31 30 30 30 30 30 29 28 28 27 27 27 27 26 26 26 26
30 31 31 32 32 32 32 33 33 33 33 32 32 32 32 32 32 32 32 32 32 32 32 32 31 31 30 30 29 29 28 28 27 27 26 26 26 26 26 26 26 26 25